Time,TemperatureF,DewpointF,PressureIn,WindDirection,WindDirectionDegrees,WindSpeedMPH,WindSpeedGustMPH,Humidity,HourlyPrecipIn,Conditions,Clouds,dailyrainin,SoftwareType,DateUTC
2013-07-07 00:00:00,55.8,32.4,29.88,North,0,0.0,0.0,41,0.00,,---,0.00,VWS V14.01,2013-07-06 22:00:00,
2013-07-07 00:04:00,55.9,32.6,29.88,North,0,0.0,0.0,41,0.00,,---,0.00,VWS V14.01,2013-07-06 22:04:00,
2013-07-07 00:05:00,55.9,32.6,29.88,North,0,0.0,0.0,41,0.00,,---,0.00,VWS V14.01,2013-07-06 22:05:00,
2013-07-07 00:10:00,55.9,32.6,29.88,North,0,0.0,0.0,41,0.00,,---,0.00,VWS V14.01,2013-07-06 22:10:00,
2013-07-07 00:11:00,55.9,32.6,29.88,North,0,0.0,0.0,41,0.00,,---,0.00,VWS V14.01,2013-07-06 22:11:00,
2013-07-07 00:14:00,56.5,31.8,29.88,North,0,0.0,0.0,39,0.00,,---,0.00,VWS V14.01,2013-07-06 22:14:00,
2013-07-07 00:15:00,56.5,31.8,29.88,North,0,0.0,0.0,39,0.00,,---,0.00,VWS V14.01,2013-07-06 22:15:00,
2013-07-07 00:19:00,56.7,31.4,29.88,North,0,0.0,0.0,38,0.00,,---,0.00,VWS V14.01,2013-07-06 22:19:00,
2013-07-07 00:24:00,56.8,30.9,29.88,North,0,0.0,0.0,37,0.00,,---,0.00,VWS V14.01,2013-07-06 22:24:00,
2013-07-07 00:25:00,56.8,30.9,29.88,North,0,0.0,0.0,37,0.00,,---,0.00,VWS V14.01,2013-07-06 22:25:00,
2013-07-07 00:28:00,56.8,30.2,29.88,North,0,0.0,0.0,36,0.00,,---,0.00,VWS V14.01,2013-07-06 22:28:00,
2013-07-07 00:30:00,56.8,30.2,29.88,North,0,0.0,0.0,36,0.00,,---,0.00,VWS V14.01,2013-07-06 22:30:00,
2013-07-07 00:32:00,56.7,30.0,29.88,North,0,0.0,0.0,36,0.00,,---,0.00,VWS V14.01,2013-07-06 22:32:00,
2013-07-07 00:35:00,56.7,30.0,29.88,North,0,0.0,0.0,36,0.00,,---,0.00,VWS V14.01,2013-07-06 22:35:00,
2013-07-07 00:38:00,56.8,30.2,29.88,North,0,0.0,0.0,36,0.00,,---,0.00,VWS V14.01,2013-07-06 22:38:00,
2013-07-07 00:39:00,56.8,29.5,29.88,North,0,0.0,0.0,35,0.00,,---,0.00,VWS V14.01,2013-07-06 22:39:00,
2013-07-07 00:42:00,57.2,29.1,29.88,North,0,0.0,0.0,34,0.00,,---,0.00,VWS V14.01,2013-07-06 22:42:00,
2013-07-07 00:46:00,57.6,28.7,29.88,North,0,0.0,0.0,33,0.00,,---,0.00,VWS V14.01,2013-07-06 22:46:00,
2013-07-07 00:47:00,57.6,28.7,29.88,North,0,0.0,0.0,33,0.00,,---,0.00,VWS V14.01,2013-07-06 22:47:00,
2013-07-07 00:49:00,57.6,28.0,29.88,North,0,0.0,0.0,32,0.00,,---,0.00,VWS V14.01,2013-07-06 22:49:00,
2013-07-07 00:51:00,57.4,27.0,29.88,North,0,0.0,0.0,31,0.00,,---,0.00,VWS V14.01,2013-07-06 22:51:00,
2013-07-07 00:54:00,57.4,27.0,29.88,North,0,0.0,0.0,31,0.00,,---,0.00,VWS V14.01,2013-07-06 22:54:00,
2013-07-07 00:59:00,56.8,27.3,29.88,North,0,0.0,0.0,32,0.00,,---,0.00,VWS V14.01,2013-07-06 22:59:00,
2013-07-07 01:00:00,56.8,27.3,29.88,North,0,0.0,0.0,32,0.00,,---,0.00,VWS V14.01,2013-07-06 23:00:00,
2013-07-07 01:03:00,56.7,27.2,29.88,North,0,0.0,0.0,32,0.00,,---,0.00,VWS V14.01,2013-07-06 23:03:00,
2013-07-07 01:06:00,56.3,26.8,29.88,North,0,0.0,0.0,32,0.00,,---,0.00,VWS V14.01,2013-07-06 23:06:00,
2013-07-07 01:07:00,56.1,26.7,29.88,North,0,0.0,0.0,32,0.00,,---,0.00,VWS V14.01,2013-07-06 23:07:00,
2013-07-07 01:14:00,56.3,26.1,29.88,North,0,0.0,0.0,31,0.00,,---,0.00,VWS V14.01,2013-07-06 23:14:00,
2013-07-07 01:15:00,56.3,25.3,29.88,North,0,0.0,0.0,30,0.00,,---,0.00,VWS V14.01,2013-07-06 23:15:00,
2013-07-07 01:20:00,56.7,24.8,29.88,North,0,0.0,0.0,29,0.00,,---,0.00,VWS V14.01,2013-07-06 23:20:00,
2013-07-07 01:21:00,56.8,24.9,29.88,North,0,0.0,0.0,29,0.00,,---,0.00,VWS V14.01,2013-07-06 23:21:00,
2013-07-07 01:27:00,56.8,24.1,29.88,North,0,0.0,0.0,28,0.00,,---,0.00,VWS V14.01,2013-07-06 23:27:00,
2013-07-07 01:28:00,57.0,24.3,29.88,North,0,0.0,0.0,28,0.00,,---,0.00,VWS V14.01,2013-07-06 23:28:00,
2013-07-07 01:32:00,57.0,23.4,29.88,North,0,0.0,0.0,27,0.00,,---,0.00,VWS V14.01,2013-07-06 23:32:00,
2013-07-07 01:36:00,57.2,23.5,29.88,North,0,0.0,0.0,27,0.00,,---,0.00,VWS V14.01,2013-07-06 23:36:00,
2013-07-07 01:37:00,57.2,23.5,29.88,North,0,0.0,0.0,27,0.00,,---,0.00,VWS V14.01,2013-07-06 23:37:00,
2013-07-07 01:39:00,57.0,23.4,29.88,North,0,0.0,0.0,27,0.00,,---,0.00,VWS V14.01,2013-07-06 23:39:00,
2013-07-07 01:42:00,57.2,22.6,29.88,North,0,0.0,0.0,26,0.00,,---,0.00,VWS V14.01,2013-07-06 23:42:00,
2013-07-07 01:43:00,57.2,22.6,29.88,North,0,0.0,0.0,26,0.00,,---,0.00,VWS V14.01,2013-07-06 23:43:00,
2013-07-07 01:46:00,57.2,22.6,29.88,North,0,0.0,0.0,26,0.00,,---,0.00,VWS V14.01,2013-07-06 23:46:00,
2013-07-07 01:49:00,57.4,22.8,29.88,North,0,0.0,0.0,26,0.00,,---,0.00,VWS V14.01,2013-07-06 23:49:00,
2013-07-07 01:52:00,57.2,22.6,29.88,North,0,0.0,0.0,26,0.00,,---,0.00,VWS V14.01,2013-07-06 23:52:00,
2013-07-07 01:53:00,57.2,22.6,29.88,North,0,0.0,0.0,26,0.00,,---,0.00,VWS V14.01,2013-07-06 23:53:00,
2013-07-07 01:58:00,56.7,24.8,29.88,North,0,0.0,0.0,29,0.00,,---,0.00,VWS V14.01,2013-07-06 23:58:00,
2013-07-07 01:59:00,56.3,24.5,29.88,North,0,0.0,0.0,29,0.00,,---,0.00,VWS V14.01,2013-07-06 23:59:00,
2013-07-07 02:00:00,56.3,23.6,29.88,North,0,0.0,0.0,28,0.00,,---,0.00,VWS V14.01,2013-07-07 00:00:00,
2013-07-07 02:05:00,56.3,22.8,29.88,North,0,0.0,0.0,27,0.00,,---,0.00,VWS V14.01,2013-07-07 00:05:00,
2013-07-07 02:06:00,56.3,22.8,29.88,North,0,0.0,0.0,27,0.00,,---,0.00,VWS V14.01,2013-07-07 00:06:00,
2013-07-07 02:10:00,56.5,22.9,29.88,North,0,0.0,0.0,27,0.00,,---,0.00,VWS V14.01,2013-07-07 00:10:00,
2013-07-07 02:13:00,56.8,22.3,29.88,North,0,0.0,0.0,26,0.00,,---,0.00,VWS V14.01,2013-07-07 00:13:00,
2013-07-07 02:15:00,57.6,23.0,29.88,North,0,0.0,0.0,26,0.00,,---,0.00,VWS V14.01,2013-07-07 00:15:00,
2013-07-07 02:19:00,57.9,23.3,29.88,North,0,0.0,0.0,26,0.00,,---,0.00,VWS V14.01,2013-07-07 00:19:00,
2013-07-07 02:20:00,57.9,22.3,29.88,North,0,0.0,0.0,25,0.00,,---,0.00,VWS V14.01,2013-07-07 00:20:00,
2013-07-07 02:24:00,57.7,23.1,29.88,North,0,0.0,0.0,26,0.00,,---,0.00,VWS V14.01,2013-07-07 00:24:00,
2013-07-07 02:26:00,57.7,22.2,29.88,North,0,0.0,0.0,25,0.00,,---,0.00,VWS V14.01,2013-07-07 00:26:00,
2013-07-07 02:27:00,57.7,22.2,29.88,North,0,0.0,0.0,25,0.00,,---,0.00,VWS V14.01,2013-07-07 00:27:00,
2013-07-07 02:29:00,57.7,22.2,29.88,North,0,0.0,0.0,25,0.00,,---,0.00,VWS V14.01,2013-07-07 00:29:00,
2013-07-07 02:33:00,57.2,22.6,29.88,North,0,0.0,0.0,26,0.00,,---,0.00,VWS V14.01,2013-07-07 00:33:00,
2013-07-07 02:35:00,56.5,22.0,29.88,North,0,0.0,0.0,26,0.00,,---,0.00,VWS V14.01,2013-07-07 00:35:00,
2013-07-07 02:36:00,56.3,21.9,29.88,North,0,0.0,0.0,26,0.00,,---,0.00,VWS V14.01,2013-07-07 00:36:00,
2013-07-07 02:41:00,56.1,21.7,29.88,North,0,0.0,0.0,26,0.00,,---,0.00,VWS V14.01,2013-07-07 00:41:00,
2013-07-07 02:43:00,56.1,21.7,29.88,North,0,0.0,0.0,26,0.00,,---,0.00,VWS V14.01,2013-07-07 00:43:00,
2013-07-07 02:44:00,55.9,21.6,29.88,North,0,0.0,0.0,26,0.00,,---,0.00,VWS V14.01,2013-07-07 00:44:00,
2013-07-07 02:47:00,55.9,21.6,29.88,North,0,0.0,0.0,26,0.00,,---,0.00,VWS V14.01,2013-07-07 00:47:00,
2013-07-07 02:49:00,56.1,21.7,29.88,North,0,0.0,0.0,26,0.00,,---,0.00,VWS V14.01,2013-07-07 00:49:00,
2013-07-07 02:53:00,56.5,22.0,29.88,North,0,0.0,0.0,26,0.00,,---,0.00,VWS V14.01,2013-07-07 00:53:00,
2013-07-07 02:54:00,56.7,22.2,29.88,North,0,0.0,0.0,26,0.00,,---,0.00,VWS V14.01,2013-07-07 00:54:00,
2013-07-07 02:58:00,56.7,22.2,29.88,North,0,0.0,0.0,26,0.00,,---,0.00,VWS V14.01,2013-07-07 00:58:00,
2013-07-07 03:01:00,56.7,22.2,29.88,North,0,0.0,0.0,26,0.00,,---,0.00,VWS V14.01,2013-07-07 01:01:00,
2013-07-07 03:03:00,56.7,22.2,29.88,North,0,0.0,0.0,26,0.00,,---,0.00,VWS V14.01,2013-07-07 01:03:00,
2013-07-07 03:05:00,56.8,22.3,29.91,North,0,0.0,0.0,26,0.00,,---,0.00,VWS V14.01,2013-07-07 01:05:00,
2013-07-07 03:08:00,57.0,22.5,29.91,North,0,0.0,0.0,26,0.00,,---,0.00,VWS V14.01,2013-07-07 01:08:00,
2013-07-07 03:11:00,57.0,22.5,29.91,North,0,0.0,0.0,26,0.00,,---,0.00,VWS V14.01,2013-07-07 01:11:00,
2013-07-07 03:13:00,57.2,21.7,29.91,North,0,0.0,0.0,25,0.00,,---,0.00,VWS V14.01,2013-07-07 01:13:00,
2013-07-07 03:17:00,57.6,22.0,29.91,North,0,0.0,0.0,25,0.00,,---,0.00,VWS V14.01,2013-07-07 01:17:00,
2013-07-07 03:19:00,57.7,22.2,29.91,North,0,0.0,0.0,25,0.00,,---,0.00,VWS V14.01,2013-07-07 01:19:00,
2013-07-07 03:22:00,57.6,22.0,29.91,North,0,0.0,0.0,25,0.00,,---,0.00,VWS V14.01,2013-07-07 01:22:00,
2013-07-07 03:23:00,57.4,21.9,29.91,North,0,0.0,0.0,25,0.00,,---,0.00,VWS V14.01,2013-07-07 01:23:00,
2013-07-07 03:26:00,57.6,22.0,29.91,North,0,0.0,0.0,25,0.00,,---,0.00,VWS V14.01,2013-07-07 01:26:00,
2013-07-07 03:30:00,57.4,21.9,29.91,North,0,0.0,0.0,25,0.00,,---,0.00,VWS V14.01,2013-07-07 01:30:00,
2013-07-07 03:31:00,57.6,22.0,29.91,North,0,0.0,0.0,25,0.00,,---,0.00,VWS V14.01,2013-07-07 01:31:00,
2013-07-07 03:36:00,57.4,21.9,29.91,North,0,0.0,0.0,25,0.00,,---,0.00,VWS V14.01,2013-07-07 01:36:00,
2013-07-07 03:37:00,57.4,21.9,29.91,North,0,0.0,0.0,25,0.00,,---,0.00,VWS V14.01,2013-07-07 01:37:00,
2013-07-07 03:38:00,57.4,21.9,29.91,North,0,0.0,0.0,25,0.00,,---,0.00,VWS V14.01,2013-07-07 01:38:00,
2013-07-07 03:45:00,57.2,21.7,29.91,North,0,0.0,0.0,25,0.00,,---,0.00,VWS V14.01,2013-07-07 01:45:00,
2013-07-07 03:50:00,56.7,21.3,29.91,North,0,0.0,0.0,25,0.00,,---,0.00,VWS V14.01,2013-07-07 01:50:00,
2013-07-07 03:54:00,56.5,22.0,29.91,North,0,0.0,0.0,26,0.00,,---,0.00,VWS V14.01,2013-07-07 01:54:00,
2013-07-07 03:56:00,56.5,22.0,29.91,North,0,0.0,0.0,26,0.00,,---,0.00,VWS V14.01,2013-07-07 01:56:00,
2013-07-07 04:00:00,56.1,21.7,29.91,North,0,0.0,0.0,26,0.00,,---,0.00,VWS V14.01,2013-07-07 02:00:00,
2013-07-07 04:04:00,55.9,21.6,29.91,North,0,0.0,0.0,26,0.00,,---,0.00,VWS V14.01,2013-07-07 02:04:00,
2013-07-07 04:07:00,55.8,21.4,29.91,North,0,0.0,0.0,26,0.00,,---,0.00,VWS V14.01,2013-07-07 02:07:00,
2013-07-07 04:10:00,55.8,21.4,29.91,North,0,0.0,0.0,26,0.00,,---,0.00,VWS V14.01,2013-07-07 02:10:00,
2013-07-07 04:14:00,55.6,21.3,29.91,North,0,0.0,0.0,26,0.00,,---,0.00,VWS V14.01,2013-07-07 02:14:00,
2013-07-07 04:15:00,55.6,21.3,29.91,North,0,0.0,0.0,26,0.00,,---,0.00,VWS V14.01,2013-07-07 02:15:00,
2013-07-07 04:19:00,55.6,21.3,29.91,North,0,0.0,0.0,26,0.00,,---,0.00,VWS V14.01,2013-07-07 02:19:00,
2013-07-07 04:21:00,55.6,21.3,29.91,North,0,0.0,0.0,26,0.00,,---,0.00,VWS V14.01,2013-07-07 02:21:00,
2013-07-07 04:27:00,55.4,21.1,29.91,North,0,0.0,0.0,26,0.00,,---,0.00,VWS V14.01,2013-07-07 02:27:00,
2013-07-07 04:29:00,55.2,21.0,29.91,North,0,0.0,0.0,26,0.00,,---,0.00,VWS V14.01,2013-07-07 02:29:00,
2013-07-07 04:31:00,55.2,21.0,29.91,North,0,0.0,0.0,26,0.00,,---,0.00,VWS V14.01,2013-07-07 02:31:00,
2013-07-07 04:35:00,55.2,21.0,29.91,North,0,0.0,0.0,26,0.00,,---,0.00,VWS V14.01,2013-07-07 02:35:00,
2013-07-07 04:37:00,55.4,21.1,29.91,North,0,0.0,0.0,26,0.00,,---,0.00,VWS V14.01,2013-07-07 02:37:00,
2013-07-07 04:39:00,55.4,21.1,29.91,North,0,0.0,0.0,26,0.00,,---,0.00,VWS V14.01,2013-07-07 02:39:00,
2013-07-07 04:43:00,55.6,21.3,29.91,North,0,0.0,0.0,26,0.00,,---,0.00,VWS V14.01,2013-07-07 02:43:00,
2013-07-07 04:45:00,55.6,21.3,29.91,North,0,0.0,0.0,26,0.00,,---,0.00,VWS V14.01,2013-07-07 02:45:00,
2013-07-07 04:52:00,56.1,21.7,29.91,North,0,0.0,0.0,26,0.00,,---,0.00,VWS V14.01,2013-07-07 02:52:00,
2013-07-07 04:55:00,56.3,21.0,29.91,North,0,0.0,0.0,25,0.00,,---,0.00,VWS V14.01,2013-07-07 02:55:00,
2013-07-07 04:57:00,56.3,21.0,29.91,North,0,0.0,0.0,25,0.00,,---,0.00,VWS V14.01,2013-07-07 02:57:00,
2013-07-07 05:00:00,56.1,20.8,29.91,North,0,0.0,0.0,25,0.00,,---,0.00,VWS V14.01,2013-07-07 03:00:00,
2013-07-07 05:02:00,56.1,20.8,29.91,North,0,0.0,0.0,25,0.00,,---,0.00,VWS V14.01,2013-07-07 03:02:00,
2013-07-07 05:05:00,56.1,20.8,29.91,North,0,0.0,0.0,25,0.00,,---,0.00,VWS V14.01,2013-07-07 03:05:00,
2013-07-07 05:08:00,55.9,20.6,29.91,North,0,0.0,0.0,25,0.00,,---,0.00,VWS V14.01,2013-07-07 03:08:00,
2013-07-07 05:10:00,55.9,20.6,29.91,North,0,0.0,0.0,25,0.00,,---,0.00,VWS V14.01,2013-07-07 03:10:00,
2013-07-07 05:14:00,55.9,20.6,29.91,North,0,0.0,0.0,25,0.00,,---,0.00,VWS V14.01,2013-07-07 03:14:00,
2013-07-07 05:15:00,55.9,20.6,29.91,North,0,0.0,0.0,25,0.00,,---,0.00,VWS V14.01,2013-07-07 03:15:00,
2013-07-07 05:20:00,56.1,20.8,29.91,North,0,0.0,0.0,25,0.00,,---,0.00,VWS V14.01,2013-07-07 03:20:00,
2013-07-07 05:21:00,56.1,20.8,29.91,North,0,0.0,0.0,25,0.00,,---,0.00,VWS V14.01,2013-07-07 03:21:00,
2013-07-07 05:23:00,56.1,20.8,29.91,North,0,0.0,0.0,25,0.00,,---,0.00,VWS V14.01,2013-07-07 03:23:00,
2013-07-07 05:25:00,55.9,20.6,29.91,North,0,0.0,0.0,25,0.00,,---,0.00,VWS V14.01,2013-07-07 03:25:00,
2013-07-07 05:28:00,55.9,20.6,29.91,North,0,0.0,0.0,25,0.00,,---,0.00,VWS V14.01,2013-07-07 03:28:00,
2013-07-07 05:30:00,55.8,20.5,29.91,North,0,0.0,0.0,25,0.00,,---,0.00,VWS V14.01,2013-07-07 03:30:00,
2013-07-07 05:35:00,55.6,20.3,29.91,North,0,0.0,0.0,25,0.00,,---,0.00,VWS V14.01,2013-07-07 03:35:00,
2013-07-07 05:42:00,55.8,20.5,29.91,North,0,0.0,0.0,25,0.00,,---,0.00,VWS V14.01,2013-07-07 03:42:00,
2013-07-07 05:44:00,55.8,20.5,29.91,North,0,0.0,0.0,25,0.00,,---,0.00,VWS V14.01,2013-07-07 03:44:00,
2013-07-07 05:49:00,55.9,20.6,29.91,North,0,0.0,0.0,25,0.00,,---,0.00,VWS V14.01,2013-07-07 03:49:00,
2013-07-07 05:54:00,56.3,21.0,29.91,North,0,0.0,0.0,25,0.00,,---,0.00,VWS V14.01,2013-07-07 03:54:00,
2013-07-07 05:58:00,56.3,21.0,29.91,North,0,0.0,0.0,25,0.00,,---,0.00,VWS V14.01,2013-07-07 03:58:00,
2013-07-07 06:00:00,56.3,21.0,29.91,North,0,0.0,0.0,25,0.00,,---,0.00,VWS V14.01,2013-07-07 04:00:00,
2013-07-07 06:01:00,56.3,21.0,29.91,North,0,0.0,0.0,25,0.00,,---,0.00,VWS V14.01,2013-07-07 04:01:00,
2013-07-07 06:02:00,56.3,21.0,29.91,North,0,0.0,0.0,25,0.00,,---,0.00,VWS V14.01,2013-07-07 04:02:00,
2013-07-07 06:03:00,56.3,21.0,29.91,North,0,0.0,0.0,25,0.00,,---,0.00,VWS V14.01,2013-07-07 04:03:00,
2013-07-07 06:05:00,56.3,21.0,29.91,North,0,0.0,0.0,25,0.00,,---,0.00,VWS V14.01,2013-07-07 04:05:00,
2013-07-07 06:07:00,56.3,21.0,29.91,North,0,0.0,0.0,25,0.00,,---,0.00,VWS V14.01,2013-07-07 04:07:00,
2013-07-07 06:09:00,56.3,21.0,29.91,North,0,0.0,0.0,25,0.00,,---,0.00,VWS V14.01,2013-07-07 04:09:00,
2013-07-07 06:10:00,56.3,21.0,29.91,North,0,0.0,0.0,25,0.00,,---,0.00,VWS V14.01,2013-07-07 04:10:00,
2013-07-07 06:11:00,56.3,21.0,29.91,North,0,0.0,0.0,25,0.00,,---,0.00,VWS V14.01,2013-07-07 04:11:00,
2013-07-07 06:13:00,56.3,21.0,29.91,North,0,0.0,0.0,25,0.00,,---,0.00,VWS V14.01,2013-07-07 04:13:00,
2013-07-07 06:14:00,56.3,21.0,29.91,North,0,0.0,0.0,25,0.00,,---,0.00,VWS V14.01,2013-07-07 04:14:00,
2013-07-07 06:19:00,56.7,21.3,29.91,North,0,0.0,0.0,25,0.00,,---,0.00,VWS V14.01,2013-07-07 04:19:00,
2013-07-07 06:20:00,56.7,21.3,29.91,North,0,0.0,0.0,25,0.00,,---,0.00,VWS V14.01,2013-07-07 04:20:00,
2013-07-07 06:22:00,56.7,21.3,29.91,North,0,0.0,0.0,25,0.00,,---,0.00,VWS V14.01,2013-07-07 04:22:00,
2013-07-07 06:24:00,56.7,21.3,29.91,North,0,0.0,0.0,25,0.00,,---,0.00,VWS V14.01,2013-07-07 04:24:00,
2013-07-07 06:25:00,56.7,21.3,29.91,North,0,0.0,0.0,25,0.00,,---,0.00,VWS V14.01,2013-07-07 04:25:00,
2013-07-07 06:26:00,56.7,21.3,29.91,North,0,0.0,0.0,25,0.00,,---,0.00,VWS V14.01,2013-07-07 04:26:00,
2013-07-07 06:29:00,56.8,21.4,29.91,North,0,0.0,0.0,25,0.00,,---,0.00,VWS V14.01,2013-07-07 04:29:00,
2013-07-07 06:31:00,56.8,21.4,29.91,North,0,0.0,0.0,25,0.00,,---,0.00,VWS V14.01,2013-07-07 04:31:00,
2013-07-07 06:33:00,56.7,21.3,29.91,North,0,0.0,0.0,25,0.00,,---,0.00,VWS V14.01,2013-07-07 04:33:00,
2013-07-07 06:35:00,56.8,21.4,29.94,North,0,0.0,0.0,25,0.00,,---,0.00,VWS V14.01,2013-07-07 04:35:00,
2013-07-07 06:36:00,56.8,21.4,29.94,North,0,0.0,0.0,25,0.00,,---,0.00,VWS V14.01,2013-07-07 04:36:00,
2013-07-07 06:38:00,56.7,21.3,29.94,North,0,0.0,0.0,25,0.00,,---,0.00,VWS V14.01,2013-07-07 04:38:00,
2013-07-07 06:39:00,56.7,21.3,29.94,North,0,0.0,0.0,25,0.00,,---,0.00,VWS V14.01,2013-07-07 04:39:00,
2013-07-07 06:41:00,56.7,21.3,29.94,North,0,0.0,0.0,25,0.00,,---,0.00,VWS V14.01,2013-07-07 04:41:00,
2013-07-07 06:42:00,56.7,21.3,29.94,North,0,0.0,0.0,25,0.00,,---,0.00,VWS V14.01,2013-07-07 04:42:00,
2013-07-07 06:46:00,56.7,21.3,29.94,North,0,0.0,0.0,25,0.00,,---,0.00,VWS V14.01,2013-07-07 04:46:00,
2013-07-07 06:47:00,56.7,21.3,29.94,North,0,0.0,0.0,25,0.00,,---,0.00,VWS V14.01,2013-07-07 04:47:00,
2013-07-07 06:51:00,56.7,21.3,29.94,North,0,0.0,0.0,25,0.00,,---,0.00,VWS V14.01,2013-07-07 04:51:00,
2013-07-07 06:53:00,56.7,21.3,29.94,North,0,0.0,0.0,25,0.00,,---,0.00,VWS V14.01,2013-07-07 04:53:00,
2013-07-07 06:54:00,56.7,21.3,29.94,North,0,0.0,0.0,25,0.00,,---,0.00,VWS V14.01,2013-07-07 04:54:00,
2013-07-07 06:55:00,56.7,21.3,29.94,North,0,0.0,0.0,25,0.00,,---,0.00,VWS V14.01,2013-07-07 04:55:00,
2013-07-07 06:56:00,56.7,21.3,29.94,North,0,0.0,0.0,25,0.00,,---,0.00,VWS V14.01,2013-07-07 04:56:00,
2013-07-07 07:00:00,56.8,22.3,29.94,North,0,0.0,0.0,26,0.00,,---,0.00,VWS V14.01,2013-07-07 05:00:00,
2013-07-07 07:01:00,56.8,22.3,29.94,North,0,0.0,0.0,26,0.00,,---,0.00,VWS V14.01,2013-07-07 05:01:00,
2013-07-07 07:02:00,56.7,22.2,29.94,North,0,0.0,0.0,26,0.00,,---,0.00,VWS V14.01,2013-07-07 05:02:00,
2013-07-07 07:03:00,56.7,22.2,29.94,North,0,0.0,0.0,26,0.00,,---,0.00,VWS V14.01,2013-07-07 05:03:00,
2013-07-07 07:05:00,56.8,22.3,29.94,North,0,0.0,0.0,26,0.00,,---,0.00,VWS V14.01,2013-07-07 05:05:00,
2013-07-07 07:08:00,56.8,22.3,29.94,North,0,0.0,0.0,26,0.00,,---,0.00,VWS V14.01,2013-07-07 05:08:00,
2013-07-07 07:09:00,56.8,22.3,29.94,North,0,0.0,0.0,26,0.00,,---,0.00,VWS V14.01,2013-07-07 05:09:00,
2013-07-07 07:11:00,57.0,22.5,29.94,North,0,0.0,0.0,26,0.00,,---,0.00,VWS V14.01,2013-07-07 05:11:00,
2013-07-07 07:15:00,57.0,22.5,29.94,North,0,0.0,0.0,26,0.00,,---,0.00,VWS V14.01,2013-07-07 05:15:00,
2013-07-07 07:17:00,57.0,22.5,29.94,North,0,0.0,0.0,26,0.00,,---,0.00,VWS V14.01,2013-07-07 05:17:00,
2013-07-07 07:18:00,57.0,22.5,29.94,North,0,0.0,0.0,26,0.00,,---,0.00,VWS V14.01,2013-07-07 05:18:00,
2013-07-07 07:19:00,57.2,21.7,29.94,North,0,0.0,0.0,25,0.00,,---,0.00,VWS V14.01,2013-07-07 05:19:00,
2013-07-07 07:20:00,57.0,22.5,29.94,North,0,0.0,0.0,26,0.00,,---,0.00,VWS V14.01,2013-07-07 05:20:00,
2013-07-07 07:24:00,57.0,22.5,29.94,North,0,0.0,0.0,26,0.00,,---,0.00,VWS V14.01,2013-07-07 05:24:00,
2013-07-07 07:25:00,57.2,21.7,29.94,North,0,0.0,0.0,25,0.00,,---,0.00,VWS V14.01,2013-07-07 05:25:00,
2013-07-07 07:28:00,57.0,22.5,29.94,North,0,0.0,0.0,26,0.00,,---,0.00,VWS V14.01,2013-07-07 05:28:00,
2013-07-07 07:31:00,57.2,21.7,29.94,North,0,0.0,0.0,25,0.00,,---,0.00,VWS V14.01,2013-07-07 05:31:00,
2013-07-07 07:32:00,57.2,21.7,29.94,North,0,0.0,0.0,25,0.00,,---,0.00,VWS V14.01,2013-07-07 05:32:00,
2013-07-07 07:33:00,57.2,21.7,29.94,North,0,0.0,0.0,25,0.00,,---,0.00,VWS V14.01,2013-07-07 05:33:00,
2013-07-07 07:35:00,57.2,21.7,29.94,North,0,0.0,0.0,25,0.00,,---,0.00,VWS V14.01,2013-07-07 05:35:00,
2013-07-07 07:36:00,57.2,21.7,29.94,North,0,0.0,0.0,25,0.00,,---,0.00,VWS V14.01,2013-07-07 05:36:00,
2013-07-07 07:40:00,57.0,22.5,29.94,North,0,0.0,0.0,26,0.00,,---,0.00,VWS V14.01,2013-07-07 05:40:00,
2013-07-07 07:41:00,56.8,22.3,29.94,North,0,0.0,0.0,26,0.00,,---,0.00,VWS V14.01,2013-07-07 05:41:00,
2013-07-07 07:44:00,56.8,22.3,29.94,North,0,0.0,0.0,26,0.00,,---,0.00,VWS V14.01,2013-07-07 05:44:00,
2013-07-07 07:45:00,56.8,22.3,29.94,North,0,0.0,0.0,26,0.00,,---,0.00,VWS V14.01,2013-07-07 05:45:00,
2013-07-07 07:47:00,56.7,22.2,29.94,North,0,0.0,0.0,26,0.00,,---,0.00,VWS V14.01,2013-07-07 05:47:00,
2013-07-07 07:51:00,56.7,22.2,29.94,North,0,0.0,0.0,26,0.00,,---,0.00,VWS V14.01,2013-07-07 05:51:00,
2013-07-07 07:52:00,56.7,22.2,29.94,North,0,0.0,0.0,26,0.00,,---,0.00,VWS V14.01,2013-07-07 05:52:00,
2013-07-07 07:54:00,56.8,22.3,29.94,North,0,0.0,0.0,26,0.00,,---,0.00,VWS V14.01,2013-07-07 05:54:00,
2013-07-07 07:55:00,57.0,22.5,29.94,North,0,0.0,0.0,26,0.00,,---,0.00,VWS V14.01,2013-07-07 05:55:00,
2013-07-07 07:56:00,57.2,22.6,29.94,North,0,0.0,0.0,26,0.00,,---,0.00,VWS V14.01,2013-07-07 05:56:00,
2013-07-07 07:58:00,57.4,22.8,29.94,North,0,0.0,0.0,26,0.00,,---,0.00,VWS V14.01,2013-07-07 05:58:00,
2013-07-07 08:00:00,57.6,23.0,29.94,North,0,0.0,0.0,26,0.00,,---,0.00,VWS V14.01,2013-07-07 06:00:00,
2013-07-07 08:03:00,58.1,23.4,29.94,North,0,0.0,0.0,26,0.00,,---,0.00,VWS V14.01,2013-07-07 06:03:00,
2013-07-07 08:05:00,58.3,23.6,29.94,North,0,0.0,0.0,26,0.00,,---,0.00,VWS V14.01,2013-07-07 06:05:00,
2013-07-07 08:07:00,58.3,23.6,29.94,North,0,0.0,0.0,26,0.00,,---,0.00,VWS V14.01,2013-07-07 06:07:00,
2013-07-07 08:09:00,58.3,23.6,29.94,North,0,0.0,0.0,26,0.00,,---,0.00,VWS V14.01,2013-07-07 06:09:00,
2013-07-07 08:10:00,58.3,22.6,29.94,North,0,0.0,0.0,25,0.00,,---,0.00,VWS V14.01,2013-07-07 06:10:00,
2013-07-07 08:12:00,58.1,23.4,29.94,North,0,0.0,0.0,26,0.00,,---,0.00,VWS V14.01,2013-07-07 06:12:00,
2013-07-07 08:15:00,58.1,23.4,29.94,North,0,0.0,0.0,26,0.00,,---,0.00,VWS V14.01,2013-07-07 06:15:00,
2013-07-07 08:16:00,58.1,23.4,29.94,North,0,0.0,0.0,26,0.00,,---,0.00,VWS V14.01,2013-07-07 06:16:00,
2013-07-07 08:17:00,58.1,23.4,29.94,North,0,0.0,0.0,26,0.00,,---,0.00,VWS V14.01,2013-07-07 06:17:00,
2013-07-07 08:18:00,58.1,23.4,29.94,North,0,0.0,0.0,26,0.00,,---,0.00,VWS V14.01,2013-07-07 06:18:00,
2013-07-07 08:20:00,58.1,23.4,29.97,North,0,0.0,0.0,26,0.00,,---,0.00,VWS V14.01,2013-07-07 06:20:00,
2013-07-07 08:22:00,58.1,23.4,29.97,North,0,0.0,0.0,26,0.00,,---,0.00,VWS V14.01,2013-07-07 06:22:00,
2013-07-07 08:23:00,58.1,23.4,29.97,North,0,0.0,0.0,26,0.00,,---,0.00,VWS V14.01,2013-07-07 06:23:00,
2013-07-07 08:25:00,58.1,23.4,29.97,North,0,0.0,0.0,26,0.00,,---,0.00,VWS V14.01,2013-07-07 06:25:00,
2013-07-07 08:27:00,58.3,23.6,29.97,North,0,0.0,0.0,26,0.00,,---,0.00,VWS V14.01,2013-07-07 06:27:00,
2013-07-07 08:30:00,58.5,23.7,29.97,North,0,0.0,0.0,26,0.00,,---,0.00,VWS V14.01,2013-07-07 06:30:00,
2013-07-07 08:31:00,59.2,23.4,29.97,North,0,0.0,0.0,25,0.00,,---,0.00,VWS V14.01,2013-07-07 06:31:00,
2013-07-07 08:32:00,59.4,23.6,29.97,North,0,0.0,0.0,25,0.00,,---,0.00,VWS V14.01,2013-07-07 06:32:00,
2013-07-07 08:34:00,59.7,23.9,29.97,North,0,0.0,0.0,25,0.00,,---,0.00,VWS V14.01,2013-07-07 06:34:00,
2013-07-07 08:36:00,60.1,24.2,29.97,North,0,0.0,0.0,25,0.00,,---,0.00,VWS V14.01,2013-07-07 06:36:00,
2013-07-07 08:38:00,60.4,24.5,29.97,North,0,0.0,0.0,25,0.00,,---,0.00,VWS V14.01,2013-07-07 06:38:00,
2013-07-07 08:40:00,60.4,24.5,29.97,North,0,0.0,0.0,25,0.00,,---,0.00,VWS V14.01,2013-07-07 06:40:00,
2013-07-07 08:43:00,60.8,24.8,29.97,North,0,0.0,0.0,25,0.00,,---,0.00,VWS V14.01,2013-07-07 06:43:00,
2013-07-07 08:45:00,61.0,24.9,29.97,North,0,0.0,0.0,25,0.00,,---,0.00,VWS V14.01,2013-07-07 06:45:00,
2013-07-07 08:47:00,61.3,25.2,29.97,North,0,0.0,0.0,25,0.00,,---,0.00,VWS V14.01,2013-07-07 06:47:00,
2013-07-07 08:49:00,61.5,25.4,29.97,North,0,0.0,0.0,25,0.00,,---,0.00,VWS V14.01,2013-07-07 06:49:00,
2013-07-07 08:51:00,61.9,25.7,29.97,North,0,0.0,0.0,25,0.00,,---,0.00,VWS V14.01,2013-07-07 06:51:00,
2013-07-07 08:53:00,62.1,25.9,29.97,North,0,0.0,0.0,25,0.00,,---,0.00,VWS V14.01,2013-07-07 06:53:00,
2013-07-07 08:55:00,62.4,26.2,29.97,North,0,0.0,0.0,25,0.00,,---,0.00,VWS V14.01,2013-07-07 06:55:00,
2013-07-07 08:56:00,62.6,25.3,29.97,North,0,0.0,0.0,24,0.00,,---,0.00,VWS V14.01,2013-07-07 06:56:00,
2013-07-07 08:58:00,62.6,25.3,29.97,North,0,0.0,0.0,24,0.00,,---,0.00,VWS V14.01,2013-07-07 06:58:00,
2013-07-07 09:02:00,62.4,26.2,29.97,North,0,0.0,0.0,25,0.00,,---,0.00,VWS V14.01,2013-07-07 07:02:00,
2013-07-07 09:04:00,62.4,26.2,29.97,North,0,0.0,0.0,25,0.00,,---,0.00,VWS V14.01,2013-07-07 07:04:00,
2013-07-07 09:06:00,63.1,25.8,30.00,North,0,0.0,0.0,24,0.00,,---,0.00,VWS V14.01,2013-07-07 07:06:00,
2013-07-07 09:09:00,63.7,26.2,30.00,North,0,0.0,0.0,24,0.00,,---,0.00,VWS V14.01,2013-07-07 07:09:00,
2013-07-07 09:11:00,63.7,26.2,30.00,North,0,0.0,0.0,24,0.00,,---,0.00,VWS V14.01,2013-07-07 07:11:00,
2013-07-07 09:15:00,64.2,26.7,30.00,North,0,0.0,0.0,24,0.00,,---,0.00,VWS V14.01,2013-07-07 07:15:00,
2013-07-07 09:17:00,64.6,26.0,30.00,North,0,0.0,0.0,23,0.00,,---,0.00,VWS V14.01,2013-07-07 07:17:00,
2013-07-07 09:19:00,64.8,26.1,30.00,North,0,0.0,0.0,23,0.00,,---,0.00,VWS V14.01,2013-07-07 07:19:00,
2013-07-07 09:20:00,64.9,26.3,30.00,North,0,0.0,0.0,23,0.00,,---,0.00,VWS V14.01,2013-07-07 07:20:00,
2013-07-07 09:21:00,65.1,26.4,30.00,North,0,0.0,0.0,23,0.00,,---,0.00,VWS V14.01,2013-07-07 07:21:00,
2013-07-07 09:25:00,65.3,27.6,30.00,North,0,0.0,0.0,24,0.00,,---,0.00,VWS V14.01,2013-07-07 07:25:00,
2013-07-07 09:26:00,65.5,27.8,30.00,North,0,0.0,0.0,24,0.00,,---,0.00,VWS V14.01,2013-07-07 07:26:00,
2013-07-07 09:27:00,65.3,27.6,30.00,North,0,0.0,0.0,24,0.00,,---,0.00,VWS V14.01,2013-07-07 07:27:00,
2013-07-07 09:30:00,65.5,27.8,30.00,North,0,0.0,0.0,24,0.00,,---,0.00,VWS V14.01,2013-07-07 07:30:00,
2013-07-07 09:31:00,65.5,27.8,30.00,North,0,0.0,0.0,24,0.00,,---,0.00,VWS V14.01,2013-07-07 07:31:00,
2013-07-07 09:32:00,65.5,27.8,30.00,North,0,0.0,0.0,24,0.00,,---,0.00,VWS V14.01,2013-07-07 07:32:00,
2013-07-07 09:33:00,65.5,27.8,30.00,North,0,0.0,0.0,24,0.00,,---,0.00,VWS V14.01,2013-07-07 07:33:00,
2013-07-07 09:35:00,65.1,27.5,30.03,North,0,0.0,0.0,24,0.00,,---,0.00,VWS V14.01,2013-07-07 07:35:00,
2013-07-07 09:38:00,64.9,28.3,30.03,North,0,0.0,0.0,25,0.00,,---,0.00,VWS V14.01,2013-07-07 07:38:00,
2013-07-07 09:39:00,64.4,27.8,30.03,North,0,0.0,0.0,25,0.00,,---,0.00,VWS V14.01,2013-07-07 07:39:00,
2013-07-07 09:42:00,63.9,27.4,30.03,North,0,0.0,0.0,25,0.00,,---,0.00,VWS V14.01,2013-07-07 07:42:00,
2013-07-07 09:45:00,63.5,27.1,30.03,North,0,0.0,0.0,25,0.00,,---,0.00,VWS V14.01,2013-07-07 07:45:00,
2013-07-07 09:46:00,63.3,26.9,30.03,North,0,0.0,0.0,25,0.00,,---,0.00,VWS V14.01,2013-07-07 07:46:00,
2013-07-07 09:48:00,63.1,26.8,30.03,North,0,0.0,0.0,25,0.00,,---,0.00,VWS V14.01,2013-07-07 07:48:00,
2013-07-07 09:50:00,63.1,26.8,30.03,North,0,0.0,0.0,25,0.00,,---,0.00,VWS V14.01,2013-07-07 07:50:00,
2013-07-07 09:51:00,63.1,26.8,30.03,North,0,0.0,0.0,25,0.00,,---,0.00,VWS V14.01,2013-07-07 07:51:00,
2013-07-07 09:55:00,63.5,28.0,30.03,North,0,0.0,0.0,26,0.00,,---,0.00,VWS V14.01,2013-07-07 07:55:00,
2013-07-07 09:56:00,63.5,29.0,30.03,North,0,0.0,0.0,27,0.00,,---,0.00,VWS V14.01,2013-07-07 07:56:00,
2013-07-07 09:57:00,63.5,29.0,30.03,North,0,0.0,0.0,27,0.00,,---,0.00,VWS V14.01,2013-07-07 07:57:00,
2013-07-07 09:58:00,63.3,28.8,30.03,North,0,0.0,0.0,27,0.00,,---,0.00,VWS V14.01,2013-07-07 07:58:00,
2013-07-07 09:59:00,63.3,28.8,30.03,North,0,0.0,0.0,27,0.00,,---,0.00,VWS V14.01,2013-07-07 07:59:00,
2013-07-07 10:01:00,63.3,30.5,30.03,North,0,0.0,0.0,29,0.00,,---,0.00,VWS V14.01,2013-07-07 08:01:00,
2013-07-07 10:02:00,63.3,33.8,30.03,North,0,0.0,0.0,33,0.00,,---,0.00,VWS V14.01,2013-07-07 08:02:00,
2013-07-07 10:05:00,63.1,33.6,30.03,North,0,0.0,0.0,33,0.00,,---,0.00,VWS V14.01,2013-07-07 08:05:00,
2013-07-07 10:06:00,63.5,33.9,30.03,North,0,0.0,0.0,33,0.00,,---,0.00,VWS V14.01,2013-07-07 08:06:00,
2013-07-07 10:07:00,63.5,33.9,30.03,North,0,0.0,0.0,33,0.00,,---,0.00,VWS V14.01,2013-07-07 08:07:00,
2013-07-07 10:11:00,63.9,34.2,30.03,North,0,0.0,0.0,33,0.00,,---,0.00,VWS V14.01,2013-07-07 08:11:00,
2013-07-07 10:12:00,63.9,32.7,30.03,North,0,0.0,0.0,31,0.00,,---,0.00,VWS V14.01,2013-07-07 08:12:00,
2013-07-07 10:14:00,64.0,32.0,30.03,North,0,0.0,0.0,30,0.00,,---,0.00,VWS V14.01,2013-07-07 08:14:00,
2013-07-07 10:15:00,64.2,32.2,30.03,North,0,0.0,0.0,30,0.00,,---,0.00,VWS V14.01,2013-07-07 08:15:00,
2013-07-07 10:17:00,64.4,29.7,30.03,North,0,0.0,0.0,27,0.00,,---,0.00,VWS V14.01,2013-07-07 08:17:00,
2013-07-07 10:18:00,64.6,29.9,30.03,North,0,0.0,0.0,27,0.00,,---,0.00,VWS V14.01,2013-07-07 08:18:00,
2013-07-07 10:19:00,64.8,30.0,30.03,North,0,0.0,0.0,27,0.00,,---,0.00,VWS V14.01,2013-07-07 08:19:00,
2013-07-07 10:21:00,64.8,29.1,30.03,North,0,0.0,0.0,26,0.00,,---,0.00,VWS V14.01,2013-07-07 08:21:00,
2013-07-07 10:23:00,64.9,30.2,30.03,North,0,0.0,0.0,27,0.00,,---,0.00,VWS V14.01,2013-07-07 08:23:00,
2013-07-07 10:24:00,65.1,30.3,30.03,North,0,0.0,0.0,27,0.00,,---,0.00,VWS V14.01,2013-07-07 08:24:00,
2013-07-07 10:25:00,65.1,30.3,30.03,North,0,0.0,0.0,27,0.00,,---,0.00,VWS V14.01,2013-07-07 08:25:00,
2013-07-07 10:26:00,65.1,30.3,30.03,North,0,0.0,0.0,27,0.00,,---,0.00,VWS V14.01,2013-07-07 08:26:00,
2013-07-07 10:28:00,64.8,30.0,30.03,North,0,0.0,0.0,27,0.00,,---,0.00,VWS V14.01,2013-07-07 08:28:00,
2013-07-07 10:29:00,64.8,30.0,30.03,North,0,0.0,0.0,27,0.00,,---,0.00,VWS V14.01,2013-07-07 08:29:00,
2013-07-07 10:31:00,64.6,30.8,30.03,North,0,0.0,0.0,28,0.00,,---,0.00,VWS V14.01,2013-07-07 08:31:00,
2013-07-07 10:33:00,64.8,30.0,30.03,North,0,0.0,0.0,27,0.00,,---,0.00,VWS V14.01,2013-07-07 08:33:00,
2013-07-07 10:34:00,64.8,30.0,30.03,North,0,0.0,0.0,27,0.00,,---,0.00,VWS V14.01,2013-07-07 08:34:00,
2013-07-07 10:35:00,64.9,30.2,30.06,North,0,0.0,0.0,27,0.00,,---,0.00,VWS V14.01,2013-07-07 08:35:00,
2013-07-07 10:37:00,64.9,29.3,30.06,North,0,0.0,0.0,26,0.00,,---,0.00,VWS V14.01,2013-07-07 08:37:00,
2013-07-07 10:41:00,65.8,29.1,30.06,North,0,0.0,0.0,25,0.00,,---,0.00,VWS V14.01,2013-07-07 08:41:00,
2013-07-07 10:42:00,66.0,29.2,30.06,North,0,0.0,0.0,25,0.00,,---,0.00,VWS V14.01,2013-07-07 08:42:00,
2013-07-07 10:43:00,66.2,29.4,30.06,North,0,0.0,0.0,25,0.00,,---,0.00,VWS V14.01,2013-07-07 08:43:00,
2013-07-07 10:47:00,66.6,28.7,30.06,North,0,0.0,0.0,24,0.00,,---,0.00,VWS V14.01,2013-07-07 08:47:00,
2013-07-07 10:48:00,66.7,28.8,30.06,North,0,0.0,0.0,24,0.00,,---,0.00,VWS V14.01,2013-07-07 08:48:00,
2013-07-07 10:49:00,67.1,29.1,30.06,North,0,0.0,0.0,24,0.00,,---,0.00,VWS V14.01,2013-07-07 08:49:00,
2013-07-07 10:50:00,67.3,29.3,30.06,North,0,0.0,0.0,24,0.00,,---,0.00,VWS V14.01,2013-07-07 08:50:00,
2013-07-07 10:53:00,67.6,29.6,30.06,North,0,0.0,0.0,24,0.00,,---,0.00,VWS V14.01,2013-07-07 08:53:00,
2013-07-07 10:55:00,68.2,30.0,30.06,North,0,0.0,0.0,24,0.00,,---,0.00,VWS V14.01,2013-07-07 08:55:00,
2013-07-07 10:57:00,68.5,29.3,30.06,North,0,0.0,0.0,23,0.00,,---,0.00,VWS V14.01,2013-07-07 08:57:00,
2013-07-07 10:59:00,68.5,29.3,30.06,North,0,0.0,0.0,23,0.00,,---,0.00,VWS V14.01,2013-07-07 08:59:00,
2013-07-07 11:02:00,68.9,29.6,30.06,North,0,0.0,0.0,23,0.00,,---,0.00,VWS V14.01,2013-07-07 09:02:00,
2013-07-07 11:03:00,68.9,29.6,30.06,North,0,0.0,0.0,23,0.00,,---,0.00,VWS V14.01,2013-07-07 09:03:00,
2013-07-07 11:08:00,69.3,29.9,30.03,North,0,0.0,0.0,23,0.00,,---,0.00,VWS V14.01,2013-07-07 09:08:00,
2013-07-07 11:10:00,69.6,30.2,30.03,North,0,0.0,0.0,23,0.00,,---,0.00,VWS V14.01,2013-07-07 09:10:00,
2013-07-07 11:11:00,70.0,30.5,30.03,North,0,0.0,0.0,23,0.00,,---,0.00,VWS V14.01,2013-07-07 09:11:00,
2013-07-07 11:13:00,70.0,30.5,30.03,North,0,0.0,0.0,23,0.00,,---,0.00,VWS V14.01,2013-07-07 09:13:00,
2013-07-07 11:14:00,70.0,29.4,30.03,North,0,0.0,0.0,22,0.00,,---,0.00,VWS V14.01,2013-07-07 09:14:00,
2013-07-07 11:16:00,70.0,29.4,30.03,North,0,0.0,0.0,22,0.00,,---,0.00,VWS V14.01,2013-07-07 09:16:00,
2013-07-07 11:19:00,70.0,29.4,30.03,North,0,0.0,0.0,22,0.00,,---,0.00,VWS V14.01,2013-07-07 09:19:00,
2013-07-07 11:21:00,70.0,29.4,30.03,North,0,0.0,0.0,22,0.00,,---,0.00,VWS V14.01,2013-07-07 09:21:00,
2013-07-07 11:22:00,70.0,29.4,30.06,North,0,0.0,0.0,22,0.00,,---,0.00,VWS V14.01,2013-07-07 09:22:00,
2013-07-07 11:23:00,69.8,29.3,30.06,North,0,0.0,0.0,22,0.00,,---,0.00,VWS V14.01,2013-07-07 09:23:00,
2013-07-07 11:24:00,70.0,29.4,30.06,North,0,0.0,0.0,22,0.00,,---,0.00,VWS V14.01,2013-07-07 09:24:00,
2013-07-07 11:26:00,70.2,29.6,30.06,North,0,0.0,0.0,22,0.00,,---,0.00,VWS V14.01,2013-07-07 09:26:00,
2013-07-07 11:28:00,70.2,29.6,30.06,North,0,0.0,0.0,22,0.00,,---,0.00,VWS V14.01,2013-07-07 09:28:00,
2013-07-07 11:31:00,70.0,29.4,30.06,North,0,0.0,0.0,22,0.00,,---,0.00,VWS V14.01,2013-07-07 09:31:00,
2013-07-07 11:33:00,70.0,29.4,30.06,North,0,0.0,0.0,22,0.00,,---,0.00,VWS V14.01,2013-07-07 09:33:00,
2013-07-07 11:34:00,70.0,29.4,30.06,North,0,0.0,0.0,22,0.00,,---,0.00,VWS V14.01,2013-07-07 09:34:00,
2013-07-07 11:36:00,69.8,29.3,30.03,North,0,0.0,0.0,22,0.00,,---,0.00,VWS V14.01,2013-07-07 09:36:00,
2013-07-07 11:37:00,69.8,29.3,30.03,North,0,0.0,0.0,22,0.00,,---,0.00,VWS V14.01,2013-07-07 09:37:00,
2013-07-07 11:40:00,69.8,29.3,30.03,North,0,0.0,0.0,22,0.00,,---,0.00,VWS V14.01,2013-07-07 09:40:00,
2013-07-07 11:43:00,69.6,29.1,30.03,North,0,0.0,0.0,22,0.00,,---,0.00,VWS V14.01,2013-07-07 09:43:00,
2013-07-07 11:44:00,69.6,29.1,30.03,North,0,0.0,0.0,22,0.00,,---,0.00,VWS V14.01,2013-07-07 09:44:00,
2013-07-07 11:45:00,69.6,29.1,30.03,North,0,0.0,0.0,22,0.00,,---,0.00,VWS V14.01,2013-07-07 09:45:00,
2013-07-07 11:48:00,69.8,29.3,30.03,North,0,0.0,0.0,22,0.00,,---,0.00,VWS V14.01,2013-07-07 09:48:00,
2013-07-07 11:49:00,70.0,29.4,30.03,North,0,0.0,0.0,22,0.00,,---,0.00,VWS V14.01,2013-07-07 09:49:00,
2013-07-07 11:50:00,70.0,29.4,30.03,North,0,0.0,0.0,22,0.00,,---,0.00,VWS V14.01,2013-07-07 09:50:00,
2013-07-07 11:53:00,70.3,29.7,30.03,North,0,0.0,0.0,22,0.00,,---,0.00,VWS V14.01,2013-07-07 09:53:00,
2013-07-07 11:54:00,70.3,29.7,30.03,North,0,0.0,0.0,22,0.00,,---,0.00,VWS V14.01,2013-07-07 09:54:00,
2013-07-07 11:57:00,70.3,29.7,30.03,North,0,0.0,0.0,22,0.00,,---,0.00,VWS V14.01,2013-07-07 09:57:00,
2013-07-07 11:58:00,70.3,29.7,30.03,North,0,0.0,0.0,22,0.00,,---,0.00,VWS V14.01,2013-07-07 09:58:00,
2013-07-07 12:01:00,70.5,29.9,30.03,North,0,0.0,0.0,22,0.00,,---,0.00,VWS V14.01,2013-07-07 10:01:00,
2013-07-07 12:02:00,70.7,30.0,30.03,North,0,0.0,0.0,22,0.00,,---,0.00,VWS V14.01,2013-07-07 10:02:00,
2013-07-07 12:05:00,70.7,30.0,30.03,North,0,0.0,0.0,22,0.00,,---,0.00,VWS V14.01,2013-07-07 10:05:00,
2013-07-07 12:07:00,70.9,30.2,30.03,North,0,0.0,0.0,22,0.00,,---,0.00,VWS V14.01,2013-07-07 10:07:00,
2013-07-07 12:08:00,70.9,30.2,30.03,North,0,0.0,0.0,22,0.00,,---,0.00,VWS V14.01,2013-07-07 10:08:00,
2013-07-07 12:09:00,70.9,30.2,30.03,North,0,0.0,0.0,22,0.00,,---,0.00,VWS V14.01,2013-07-07 10:09:00,
2013-07-07 12:10:00,70.9,30.2,30.03,North,0,0.0,0.0,22,0.00,,---,0.00,VWS V14.01,2013-07-07 10:10:00,
2013-07-07 12:11:00,70.9,30.2,30.03,North,0,0.0,0.0,22,0.00,,---,0.00,VWS V14.01,2013-07-07 10:11:00,
2013-07-07 12:15:00,70.7,30.0,30.03,North,0,0.0,0.0,22,0.00,,---,0.00,VWS V14.01,2013-07-07 10:15:00,
2013-07-07 12:16:00,70.5,29.9,30.03,North,0,0.0,0.0,22,0.00,,---,0.00,VWS V14.01,2013-07-07 10:16:00,
2013-07-07 12:17:00,70.3,29.7,30.03,North,0,0.0,0.0,22,0.00,,---,0.00,VWS V14.01,2013-07-07 10:17:00,
2013-07-07 12:19:00,70.3,29.7,30.03,North,0,0.0,0.0,22,0.00,,---,0.00,VWS V14.01,2013-07-07 10:19:00,
2013-07-07 12:20:00,70.3,29.7,30.03,North,0,0.0,0.0,22,0.00,,---,0.00,VWS V14.01,2013-07-07 10:20:00,
2013-07-07 12:23:00,70.3,29.7,30.03,North,0,0.0,0.0,22,0.00,,---,0.00,VWS V14.01,2013-07-07 10:23:00,
2013-07-07 12:24:00,70.2,29.6,30.03,North,0,0.0,0.0,22,0.00,,---,0.00,VWS V14.01,2013-07-07 10:24:00,
2013-07-07 12:25:00,70.3,29.7,30.03,North,0,0.0,0.0,22,0.00,,---,0.00,VWS V14.01,2013-07-07 10:25:00,
2013-07-07 12:27:00,70.3,29.7,30.03,North,0,0.0,0.0,22,0.00,,---,0.00,VWS V14.01,2013-07-07 10:27:00,
2013-07-07 12:28:00,70.3,29.7,30.03,North,0,0.0,0.0,22,0.00,,---,0.00,VWS V14.01,2013-07-07 10:28:00,
2013-07-07 12:31:00,70.3,29.7,30.03,North,0,0.0,0.0,22,0.00,,---,0.00,VWS V14.01,2013-07-07 10:31:00,
2013-07-07 12:35:00,70.0,29.4,30.03,North,0,0.0,0.0,22,0.00,,---,0.00,VWS V14.01,2013-07-07 10:35:00,
2013-07-07 12:38:00,70.2,29.6,30.03,North,0,0.0,0.0,22,0.00,,---,0.00,VWS V14.01,2013-07-07 10:38:00,
2013-07-07 12:39:00,70.2,29.6,30.03,North,0,0.0,0.0,22,0.00,,---,0.00,VWS V14.01,2013-07-07 10:39:00,
2013-07-07 12:40:00,70.2,29.6,30.03,North,0,0.0,0.0,22,0.00,,---,0.00,VWS V14.01,2013-07-07 10:40:00,
2013-07-07 12:44:00,70.0,29.4,30.03,North,0,0.0,0.0,22,0.00,,---,0.00,VWS V14.01,2013-07-07 10:44:00,
2013-07-07 12:45:00,69.8,29.3,30.03,North,0,0.0,0.0,22,0.00,,---,0.00,VWS V14.01,2013-07-07 10:45:00,
2013-07-07 12:46:00,69.6,30.2,30.03,North,0,0.0,0.0,23,0.00,,---,0.00,VWS V14.01,2013-07-07 10:46:00,
2013-07-07 12:47:00,69.6,30.2,30.03,North,0,0.0,0.0,23,0.00,,---,0.00,VWS V14.01,2013-07-07 10:47:00,
2013-07-07 12:50:00,69.3,29.9,30.03,North,0,0.0,0.0,23,0.00,,---,0.00,VWS V14.01,2013-07-07 10:50:00,
2013-07-07 12:52:00,69.3,29.9,30.03,North,0,0.0,0.0,23,0.00,,---,0.00,VWS V14.01,2013-07-07 10:52:00,
2013-07-07 12:53:00,69.3,29.9,30.03,North,0,0.0,0.0,23,0.00,,---,0.00,VWS V14.01,2013-07-07 10:53:00,
2013-07-07 12:58:00,69.3,29.9,30.03,North,0,0.0,0.0,23,0.00,,---,0.00,VWS V14.01,2013-07-07 10:58:00,
2013-07-07 12:59:00,69.3,29.9,30.03,North,0,0.0,0.0,23,0.00,,---,0.00,VWS V14.01,2013-07-07 10:59:00,
2013-07-07 13:00:00,69.3,29.9,30.03,North,0,0.0,0.0,23,0.00,,---,0.00,VWS V14.01,2013-07-07 11:00:00,
2013-07-07 13:01:00,69.4,30.1,30.03,North,0,0.0,0.0,23,0.00,,---,0.00,VWS V14.01,2013-07-07 11:01:00,
2013-07-07 13:02:00,69.3,29.9,30.03,North,0,0.0,0.0,23,0.00,,---,0.00,VWS V14.01,2013-07-07 11:02:00,
2013-07-07 13:03:00,69.4,30.1,30.03,North,0,0.0,0.0,23,0.00,,---,0.00,VWS V14.01,2013-07-07 11:03:00,
2013-07-07 13:08:00,69.4,30.1,30.03,North,0,0.0,0.0,23,0.00,,---,0.00,VWS V14.01,2013-07-07 11:08:00,
2013-07-07 13:09:00,69.4,30.1,30.03,North,0,0.0,0.0,23,0.00,,---,0.00,VWS V14.01,2013-07-07 11:09:00,
2013-07-07 13:10:00,69.4,30.1,30.03,North,0,0.0,0.0,23,0.00,,---,0.00,VWS V14.01,2013-07-07 11:10:00,
2013-07-07 13:12:00,69.8,30.4,30.03,North,0,0.0,0.0,23,0.00,,---,0.00,VWS V14.01,2013-07-07 11:12:00,
2013-07-07 13:14:00,69.6,30.2,30.03,North,0,0.0,0.0,23,0.00,,---,0.00,VWS V14.01,2013-07-07 11:14:00,
2013-07-07 13:15:00,69.8,30.4,30.03,North,0,0.0,0.0,23,0.00,,---,0.00,VWS V14.01,2013-07-07 11:15:00,
2013-07-07 13:17:00,69.8,30.4,30.03,North,0,0.0,0.0,23,0.00,,---,0.00,VWS V14.01,2013-07-07 11:17:00,
2013-07-07 13:19:00,69.6,30.2,30.03,North,0,0.0,0.0,23,0.00,,---,0.00,VWS V14.01,2013-07-07 11:19:00,
2013-07-07 13:21:00,69.6,30.2,30.03,North,0,0.0,0.0,23,0.00,,---,0.00,VWS V14.01,2013-07-07 11:21:00,
2013-07-07 13:22:00,69.4,30.1,30.03,North,0,0.0,0.0,23,0.00,,---,0.00,VWS V14.01,2013-07-07 11:22:00,
2013-07-07 13:25:00,69.6,30.2,30.03,North,0,0.0,0.0,23,0.00,,---,0.00,VWS V14.01,2013-07-07 11:25:00,
2013-07-07 13:28:00,69.6,30.2,30.03,North,0,0.0,0.0,23,0.00,,---,0.00,VWS V14.01,2013-07-07 11:28:00,
2013-07-07 13:29:00,69.4,30.1,30.03,North,0,0.0,0.0,23,0.00,,---,0.00,VWS V14.01,2013-07-07 11:29:00,
2013-07-07 13:33:00,69.6,30.2,30.03,North,0,0.0,0.0,23,0.00,,---,0.00,VWS V14.01,2013-07-07 11:33:00,
2013-07-07 13:34:00,69.6,30.2,30.03,North,0,0.0,0.0,23,0.00,,---,0.00,VWS V14.01,2013-07-07 11:34:00,
2013-07-07 13:35:00,69.6,30.2,30.00,North,0,0.0,0.0,23,0.00,,---,0.00,VWS V14.01,2013-07-07 11:35:00,
2013-07-07 13:38:00,69.8,30.4,30.00,North,0,0.0,0.0,23,0.00,,---,0.00,VWS V14.01,2013-07-07 11:38:00,
2013-07-07 13:40:00,70.2,30.7,30.00,North,0,0.0,0.0,23,0.00,,---,0.00,VWS V14.01,2013-07-07 11:40:00,
2013-07-07 13:41:00,70.3,30.8,30.00,North,0,0.0,0.0,23,0.00,,---,0.00,VWS V14.01,2013-07-07 11:41:00,
2013-07-07 13:42:00,70.3,30.8,30.00,North,0,0.0,0.0,23,0.00,,---,0.00,VWS V14.01,2013-07-07 11:42:00,
2013-07-07 13:45:00,70.2,30.7,30.00,North,0,0.0,0.0,23,0.00,,---,0.00,VWS V14.01,2013-07-07 11:45:00,
2013-07-07 13:47:00,70.3,30.8,30.00,North,0,0.0,0.0,23,0.00,,---,0.00,VWS V14.01,2013-07-07 11:47:00,
2013-07-07 13:48:00,70.3,30.8,30.00,North,0,0.0,0.0,23,0.00,,---,0.00,VWS V14.01,2013-07-07 11:48:00,
2013-07-07 13:50:00,70.2,30.7,30.00,North,0,0.0,0.0,23,0.00,,---,0.00,VWS V14.01,2013-07-07 11:50:00,
2013-07-07 13:53:00,70.2,30.7,30.00,North,0,0.0,0.0,23,0.00,,---,0.00,VWS V14.01,2013-07-07 11:53:00,
2013-07-07 13:55:00,70.2,30.7,30.00,North,0,0.0,0.0,23,0.00,,---,0.00,VWS V14.01,2013-07-07 11:55:00,
2013-07-07 13:57:00,70.0,30.5,30.00,North,0,0.0,0.0,23,0.00,,---,0.00,VWS V14.01,2013-07-07 11:57:00,
2013-07-07 13:58:00,69.8,30.4,30.00,North,0,0.0,0.0,23,0.00,,---,0.00,VWS V14.01,2013-07-07 11:58:00,
2013-07-07 14:01:00,70.0,30.5,30.00,North,0,0.0,0.0,23,0.00,,---,0.00,VWS V14.01,2013-07-07 12:01:00,
2013-07-07 14:03:00,69.8,30.4,30.00,North,0,0.0,0.0,23,0.00,,---,0.00,VWS V14.01,2013-07-07 12:03:00,
2013-07-07 14:04:00,69.6,30.2,30.00,North,0,0.0,0.0,23,0.00,,---,0.00,VWS V14.01,2013-07-07 12:04:00,
2013-07-07 14:07:00,69.4,30.1,30.03,North,0,0.0,0.0,23,0.00,,---,0.00,VWS V14.01,2013-07-07 12:07:00,
2013-07-07 14:08:00,69.3,29.9,30.03,North,0,0.0,0.0,23,0.00,,---,0.00,VWS V14.01,2013-07-07 12:08:00,
2013-07-07 14:10:00,69.3,29.9,30.03,North,0,0.0,0.0,23,0.00,,---,0.00,VWS V14.01,2013-07-07 12:10:00,
2013-07-07 14:12:00,69.3,29.9,30.03,North,0,0.0,0.0,23,0.00,,---,0.00,VWS V14.01,2013-07-07 12:12:00,
2013-07-07 14:14:00,69.4,30.1,30.03,North,0,0.0,0.0,23,0.00,,---,0.00,VWS V14.01,2013-07-07 12:14:00,
2013-07-07 14:16:00,69.4,30.1,30.03,North,0,0.0,0.0,23,0.00,,---,0.00,VWS V14.01,2013-07-07 12:16:00,
2013-07-07 14:19:00,69.3,29.9,30.03,North,0,0.0,0.0,23,0.00,,---,0.00,VWS V14.01,2013-07-07 12:19:00,
2013-07-07 14:21:00,69.3,29.9,30.00,North,0,0.0,0.0,23,0.00,,---,0.00,VWS V14.01,2013-07-07 12:21:00,
2013-07-07 14:22:00,69.3,29.9,30.00,North,0,0.0,0.0,23,0.00,,---,0.00,VWS V14.01,2013-07-07 12:22:00,
2013-07-07 14:24:00,69.3,29.9,30.00,North,0,0.0,0.0,23,0.00,,---,0.00,VWS V14.01,2013-07-07 12:24:00,
2013-07-07 14:27:00,69.1,29.8,30.00,North,0,0.0,0.0,23,0.00,,---,0.00,VWS V14.01,2013-07-07 12:27:00,
2013-07-07 14:28:00,69.1,29.8,30.00,North,0,0.0,0.0,23,0.00,,---,0.00,VWS V14.01,2013-07-07 12:28:00,
2013-07-07 14:32:00,69.1,29.8,30.00,North,0,0.0,0.0,23,0.00,,---,0.00,VWS V14.01,2013-07-07 12:32:00,
2013-07-07 14:33:00,68.9,29.6,30.00,North,0,0.0,0.0,23,0.00,,---,0.00,VWS V14.01,2013-07-07 12:33:00,
2013-07-07 14:35:00,68.7,29.5,30.00,North,0,0.0,0.0,23,0.00,,---,0.00,VWS V14.01,2013-07-07 12:35:00,
2013-07-07 14:36:00,68.7,29.5,30.00,North,0,0.0,0.0,23,0.00,,---,0.00,VWS V14.01,2013-07-07 12:36:00,
2013-07-07 14:38:00,68.5,29.3,30.00,North,0,0.0,0.0,23,0.00,,---,0.00,VWS V14.01,2013-07-07 12:38:00,
2013-07-07 14:40:00,68.5,29.3,30.00,North,0,0.0,0.0,23,0.00,,---,0.00,VWS V14.01,2013-07-07 12:40:00,
2013-07-07 14:41:00,68.7,29.5,30.00,North,0,0.0,0.0,23,0.00,,---,0.00,VWS V14.01,2013-07-07 12:41:00,
2013-07-07 14:42:00,68.5,29.3,30.00,North,0,0.0,0.0,23,0.00,,---,0.00,VWS V14.01,2013-07-07 12:42:00,
2013-07-07 14:43:00,68.5,29.3,30.00,North,0,0.0,0.0,23,0.00,,---,0.00,VWS V14.01,2013-07-07 12:43:00,
2013-07-07 14:45:00,68.5,29.3,30.00,North,0,0.0,0.0,23,0.00,,---,0.00,VWS V14.01,2013-07-07 12:45:00,
2013-07-07 14:48:00,68.4,29.1,30.00,North,0,0.0,0.0,23,0.00,,---,0.00,VWS V14.01,2013-07-07 12:48:00,
2013-07-07 14:49:00,68.5,29.3,30.00,North,0,0.0,0.0,23,0.00,,---,0.00,VWS V14.01,2013-07-07 12:49:00,
2013-07-07 14:53:00,68.5,29.3,30.00,North,0,0.0,0.0,23,0.00,,---,0.00,VWS V14.01,2013-07-07 12:53:00,
2013-07-07 14:54:00,68.5,29.3,30.00,North,0,0.0,0.0,23,0.00,,---,0.00,VWS V14.01,2013-07-07 12:54:00,
2013-07-07 14:55:00,68.5,29.3,30.00,North,0,0.0,0.0,23,0.00,,---,0.00,VWS V14.01,2013-07-07 12:55:00,
2013-07-07 14:56:00,68.5,29.3,30.00,North,0,0.0,0.0,23,0.00,,---,0.00,VWS V14.01,2013-07-07 12:56:00,
2013-07-07 14:57:00,68.4,29.1,30.00,North,0,0.0,0.0,23,0.00,,---,0.00,VWS V14.01,2013-07-07 12:57:00,
2013-07-07 15:00:00,68.5,29.3,30.00,North,0,0.0,0.0,23,0.00,,---,0.00,VWS V14.01,2013-07-07 13:00:00,
2013-07-07 15:01:00,68.5,29.3,30.00,North,0,0.0,0.0,23,0.00,,---,0.00,VWS V14.01,2013-07-07 13:01:00,
2013-07-07 15:02:00,68.4,29.1,30.00,North,0,0.0,0.0,23,0.00,,---,0.00,VWS V14.01,2013-07-07 13:02:00,
2013-07-07 15:03:00,68.5,29.3,30.00,North,0,0.0,0.0,23,0.00,,---,0.00,VWS V14.01,2013-07-07 13:03:00,
2013-07-07 15:06:00,68.5,29.3,30.03,North,0,0.0,0.0,23,0.00,,---,0.00,VWS V14.01,2013-07-07 13:06:00,
2013-07-07 15:08:00,68.4,29.1,30.03,North,0,0.0,0.0,23,0.00,,---,0.00,VWS V14.01,2013-07-07 13:08:00,
2013-07-07 15:09:00,68.4,29.1,30.03,North,0,0.0,0.0,23,0.00,,---,0.00,VWS V14.01,2013-07-07 13:09:00,
2013-07-07 15:12:00,68.5,29.3,30.03,North,0,0.0,0.0,23,0.00,,---,0.00,VWS V14.01,2013-07-07 13:12:00,
2013-07-07 15:13:00,68.4,29.1,30.03,North,0,0.0,0.0,23,0.00,,---,0.00,VWS V14.01,2013-07-07 13:13:00,
2013-07-07 15:17:00,68.2,29.0,30.03,North,0,0.0,0.0,23,0.00,,---,0.00,VWS V14.01,2013-07-07 13:17:00,
2013-07-07 15:20:00,68.0,28.9,30.03,North,0,0.0,0.0,23,0.00,,---,0.00,VWS V14.01,2013-07-07 13:20:00,
2013-07-07 15:22:00,68.0,28.9,30.03,North,0,0.0,0.0,23,0.00,,---,0.00,VWS V14.01,2013-07-07 13:22:00,
2013-07-07 15:25:00,68.0,28.9,30.03,North,0,0.0,0.0,23,0.00,,---,0.00,VWS V14.01,2013-07-07 13:25:00,
2013-07-07 15:26:00,68.0,28.9,30.03,North,0,0.0,0.0,23,0.00,,---,0.00,VWS V14.01,2013-07-07 13:26:00,
2013-07-07 15:27:00,67.8,29.7,30.03,North,0,0.0,0.0,24,0.00,,---,0.00,VWS V14.01,2013-07-07 13:27:00,
2013-07-07 15:28:00,67.8,29.7,30.03,North,0,0.0,0.0,24,0.00,,---,0.00,VWS V14.01,2013-07-07 13:28:00,
2013-07-07 15:31:00,67.6,29.6,30.03,North,0,0.0,0.0,24,0.00,,---,0.00,VWS V14.01,2013-07-07 13:31:00,
2013-07-07 15:32:00,67.6,29.6,30.03,North,0,0.0,0.0,24,0.00,,---,0.00,VWS V14.01,2013-07-07 13:32:00,
2013-07-07 15:33:00,67.6,29.6,30.03,North,0,0.0,0.0,24,0.00,,---,0.00,VWS V14.01,2013-07-07 13:33:00,
2013-07-07 15:34:00,67.8,29.7,30.03,North,0,0.0,0.0,24,0.00,,---,0.00,VWS V14.01,2013-07-07 13:34:00,
2013-07-07 15:36:00,67.8,29.7,30.03,North,0,0.0,0.0,24,0.00,,---,0.00,VWS V14.01,2013-07-07 13:36:00,
2013-07-07 15:37:00,67.6,29.6,30.03,North,0,0.0,0.0,24,0.00,,---,0.00,VWS V14.01,2013-07-07 13:37:00,
2013-07-07 15:38:00,67.6,29.6,30.03,North,0,0.0,0.0,24,0.00,,---,0.00,VWS V14.01,2013-07-07 13:38:00,
2013-07-07 15:40:00,67.3,29.3,30.03,North,0,0.0,0.0,24,0.00,,---,0.00,VWS V14.01,2013-07-07 13:40:00,
2013-07-07 15:42:00,67.1,29.1,30.03,North,0,0.0,0.0,24,0.00,,---,0.00,VWS V14.01,2013-07-07 13:42:00,
2013-07-07 15:43:00,67.1,29.1,30.03,North,0,0.0,0.0,24,0.00,,---,0.00,VWS V14.01,2013-07-07 13:43:00,
2013-07-07 15:45:00,67.1,29.1,30.03,North,0,0.0,0.0,24,0.00,,---,0.00,VWS V14.01,2013-07-07 13:45:00,
2013-07-07 15:46:00,66.9,29.0,30.03,North,0,0.0,0.0,24,0.00,,---,0.00,VWS V14.01,2013-07-07 13:46:00,
2013-07-07 15:48:00,66.9,29.0,30.03,North,0,0.0,0.0,24,0.00,,---,0.00,VWS V14.01,2013-07-07 13:48:00,
2013-07-07 15:52:00,66.7,29.8,30.03,North,0,0.0,0.0,25,0.00,,---,0.00,VWS V14.01,2013-07-07 13:52:00,
2013-07-07 15:53:00,66.7,29.8,30.03,North,0,0.0,0.0,25,0.00,,---,0.00,VWS V14.01,2013-07-07 13:53:00,
2013-07-07 15:54:00,66.7,29.8,30.03,North,0,0.0,0.0,25,0.00,,---,0.00,VWS V14.01,2013-07-07 13:54:00,
2013-07-07 15:59:00,66.2,29.4,30.03,North,0,0.0,0.0,25,0.00,,---,0.00,VWS V14.01,2013-07-07 13:59:00,
2013-07-07 16:01:00,66.2,30.3,30.03,North,0,0.0,0.0,26,0.00,,---,0.00,VWS V14.01,2013-07-07 14:01:00,
2013-07-07 16:04:00,66.0,31.1,30.03,North,0,0.0,0.0,27,0.00,,---,0.00,VWS V14.01,2013-07-07 14:04:00,
2013-07-07 16:05:00,65.7,31.7,30.03,North,0,0.0,0.0,28,0.00,,---,0.00,VWS V14.01,2013-07-07 14:05:00,
2013-07-07 16:07:00,65.5,32.4,30.03,North,0,0.0,0.0,29,0.00,,---,0.00,VWS V14.01,2013-07-07 14:07:00,
2013-07-07 16:08:00,65.5,32.4,30.03,North,0,0.0,0.0,29,0.00,,---,0.00,VWS V14.01,2013-07-07 14:08:00,
2013-07-07 16:09:00,65.3,32.3,30.03,North,0,0.0,0.0,29,0.00,,---,0.00,VWS V14.01,2013-07-07 14:09:00,
2013-07-07 16:10:00,65.3,32.3,30.03,North,0,0.0,0.0,29,0.00,,---,0.00,VWS V14.01,2013-07-07 14:10:00,
2013-07-07 16:14:00,65.1,33.8,30.03,North,0,0.0,0.0,31,0.00,,---,0.00,VWS V14.01,2013-07-07 14:14:00,
2013-07-07 16:16:00,64.9,34.4,30.03,North,0,0.0,0.0,32,0.00,,---,0.00,VWS V14.01,2013-07-07 14:16:00,
2013-07-07 16:17:00,64.9,35.2,30.03,North,0,0.0,0.0,33,0.00,,---,0.00,VWS V14.01,2013-07-07 14:17:00,
2013-07-07 16:18:00,64.8,35.0,30.03,North,0,0.0,0.0,33,0.00,,---,0.00,VWS V14.01,2013-07-07 14:18:00,
2013-07-07 16:21:00,64.9,35.2,30.03,North,0,0.0,0.0,33,0.00,,---,0.00,VWS V14.01,2013-07-07 14:21:00,
2013-07-07 16:24:00,64.9,35.9,30.03,North,0,0.0,0.0,34,0.00,,---,0.00,VWS V14.01,2013-07-07 14:24:00,
2013-07-07 16:27:00,64.8,35.8,30.03,North,0,0.0,0.0,34,0.00,,---,0.00,VWS V14.01,2013-07-07 14:27:00,
2013-07-07 16:29:00,64.8,35.8,30.03,North,0,0.0,0.0,34,0.00,,---,0.00,VWS V14.01,2013-07-07 14:29:00,
2013-07-07 16:31:00,64.6,35.6,30.03,North,0,0.0,0.0,34,0.00,,---,0.00,VWS V14.01,2013-07-07 14:31:00,
2013-07-07 16:33:00,64.2,36.0,30.03,North,0,0.0,0.0,35,0.00,,---,0.00,VWS V14.01,2013-07-07 14:33:00,
2013-07-07 16:34:00,64.4,36.2,30.03,North,0,0.0,0.0,35,0.00,,---,0.00,VWS V14.01,2013-07-07 14:34:00,
2013-07-07 16:37:00,64.4,36.2,30.03,North,0,0.0,0.0,35,0.00,,---,0.00,VWS V14.01,2013-07-07 14:37:00,
2013-07-07 16:42:00,64.2,36.7,30.03,North,0,0.0,0.0,36,0.00,,---,0.00,VWS V14.01,2013-07-07 14:42:00,
2013-07-07 16:44:00,63.9,36.4,30.03,North,0,0.0,0.0,36,0.00,,---,0.00,VWS V14.01,2013-07-07 14:44:00,
2013-07-07 16:46:00,63.9,36.4,30.03,North,0,0.0,0.0,36,0.00,,---,0.00,VWS V14.01,2013-07-07 14:46:00,
2013-07-07 16:47:00,63.9,36.4,30.03,North,0,0.0,0.0,36,0.00,,---,0.00,VWS V14.01,2013-07-07 14:47:00,
2013-07-07 16:51:00,63.9,36.4,30.03,North,0,0.0,0.0,36,0.00,,---,0.00,VWS V14.01,2013-07-07 14:51:00,
2013-07-07 16:53:00,63.9,36.4,30.03,North,0,0.0,0.0,36,0.00,,---,0.00,VWS V14.01,2013-07-07 14:53:00,
2013-07-07 16:54:00,63.9,36.4,30.03,North,0,0.0,0.0,36,0.00,,---,0.00,VWS V14.01,2013-07-07 14:54:00,
2013-07-07 16:55:00,63.9,36.4,30.03,North,0,0.0,0.0,36,0.00,,---,0.00,VWS V14.01,2013-07-07 14:55:00,
2013-07-07 16:56:00,63.9,36.4,30.03,North,0,0.0,0.0,36,0.00,,---,0.00,VWS V14.01,2013-07-07 14:56:00,
2013-07-07 17:00:00,63.9,36.4,30.03,North,0,0.0,0.0,36,0.00,,---,0.00,VWS V14.01,2013-07-07 15:00:00,
2013-07-07 17:01:00,63.9,36.4,30.03,North,0,0.0,0.0,36,0.00,,---,0.00,VWS V14.01,2013-07-07 15:01:00,
2013-07-07 17:02:00,63.9,36.4,30.03,North,0,0.0,0.0,36,0.00,,---,0.00,VWS V14.01,2013-07-07 15:02:00,
2013-07-07 17:05:00,63.9,36.4,30.03,North,0,0.0,0.0,36,0.00,,---,0.00,VWS V14.01,2013-07-07 15:05:00,
2013-07-07 17:07:00,63.9,36.4,30.03,North,0,0.0,0.0,36,0.00,,---,0.00,VWS V14.01,2013-07-07 15:07:00,
2013-07-07 17:09:00,63.9,36.4,30.03,North,0,0.0,0.0,36,0.00,,---,0.00,VWS V14.01,2013-07-07 15:09:00,
2013-07-07 17:10:00,63.9,36.4,30.03,North,0,0.0,0.0,36,0.00,,---,0.00,VWS V14.01,2013-07-07 15:10:00,
2013-07-07 17:13:00,61.3,36.8,30.03,North,0,0.0,0.0,40,0.00,,---,0.00,VWS V14.01,2013-07-07 15:13:00,
2013-07-07 17:15:00,61.3,37.5,30.03,North,0,0.0,0.0,41,0.00,,---,0.00,VWS V14.01,2013-07-07 15:15:00,
2013-07-07 17:16:00,61.3,37.5,30.03,North,0,0.0,0.0,41,0.00,,---,0.00,VWS V14.01,2013-07-07 15:16:00,
2013-07-07 17:20:00,61.2,37.3,30.03,North,0,0.0,0.0,41,0.00,,---,0.00,VWS V14.01,2013-07-07 15:20:00,
2013-07-07 17:22:00,61.0,37.1,30.03,North,0,0.0,0.0,41,0.00,,---,0.00,VWS V14.01,2013-07-07 15:22:00,
2013-07-07 17:26:00,60.8,38.2,30.03,North,0,0.0,0.0,43,0.00,,---,0.00,VWS V14.01,2013-07-07 15:26:00,
2013-07-07 17:27:00,60.8,38.2,30.03,North,0,0.0,0.0,43,0.00,,---,0.00,VWS V14.01,2013-07-07 15:27:00,
2013-07-07 17:29:00,60.6,38.6,30.03,North,0,0.0,0.0,44,0.00,,---,0.00,VWS V14.01,2013-07-07 15:29:00,
2013-07-07 17:32:00,60.6,39.2,30.03,North,0,0.0,0.0,45,0.00,,---,0.00,VWS V14.01,2013-07-07 15:32:00,
2013-07-07 17:33:00,60.4,39.0,30.03,North,0,0.0,0.0,45,0.00,,---,0.00,VWS V14.01,2013-07-07 15:33:00,
2013-07-07 17:34:00,60.4,39.0,30.03,North,0,0.0,0.0,45,0.00,,---,0.00,VWS V14.01,2013-07-07 15:34:00,
2013-07-07 17:35:00,60.4,39.6,30.03,North,0,0.0,0.0,46,0.00,,---,0.00,VWS V14.01,2013-07-07 15:35:00,
2013-07-07 17:38:00,60.3,39.4,30.03,North,0,0.0,0.0,46,0.00,,---,0.00,VWS V14.01,2013-07-07 15:38:00,
2013-07-07 17:39:00,60.3,39.4,30.03,North,0,0.0,0.0,46,0.00,,---,0.00,VWS V14.01,2013-07-07 15:39:00,
2013-07-07 17:40:00,60.3,40.0,30.03,North,0,0.0,0.0,47,0.00,,---,0.00,VWS V14.01,2013-07-07 15:40:00,
2013-07-07 17:44:00,60.1,39.8,30.03,North,0,0.0,0.0,47,0.00,,---,0.00,VWS V14.01,2013-07-07 15:44:00,
2013-07-07 17:46:00,59.9,39.6,30.03,North,0,0.0,0.0,47,0.00,,---,0.00,VWS V14.01,2013-07-07 15:46:00,
2013-07-07 17:51:00,59.7,40.0,30.06,North,0,0.0,0.0,48,0.00,,---,0.00,VWS V14.01,2013-07-07 15:51:00,
2013-07-07 17:52:00,59.5,40.4,30.06,North,0,0.0,0.0,49,0.00,,---,0.00,VWS V14.01,2013-07-07 15:52:00,
2013-07-07 17:54:00,59.5,40.4,30.06,North,0,0.0,0.0,49,0.00,,---,0.00,VWS V14.01,2013-07-07 15:54:00,
2013-07-07 17:56:00,59.5,40.9,30.06,North,0,0.0,0.0,50,0.00,,---,0.00,VWS V14.01,2013-07-07 15:56:00,
2013-07-07 17:57:00,59.5,41.4,30.06,North,0,0.0,0.0,51,0.00,,---,0.00,VWS V14.01,2013-07-07 15:57:00,
2013-07-07 17:58:00,59.5,41.9,30.06,North,0,0.0,0.0,52,0.00,,---,0.00,VWS V14.01,2013-07-07 15:58:00,
2013-07-07 18:02:00,59.5,42.9,30.06,North,0,0.0,0.0,54,0.00,,---,0.00,VWS V14.01,2013-07-07 16:02:00,
2013-07-07 18:03:00,59.5,42.9,30.06,North,0,0.0,0.0,54,0.00,,---,0.00,VWS V14.01,2013-07-07 16:03:00,
2013-07-07 18:04:00,59.5,43.4,30.06,North,0,0.0,0.0,55,0.00,,---,0.00,VWS V14.01,2013-07-07 16:04:00,
2013-07-07 18:05:00,59.5,43.4,30.03,North,0,0.0,0.0,55,0.00,,---,0.00,VWS V14.01,2013-07-07 16:05:00,
2013-07-07 18:07:00,59.5,43.4,30.03,North,0,0.0,0.0,55,0.00,,---,0.00,VWS V14.01,2013-07-07 16:07:00,
2013-07-07 18:08:00,59.5,43.8,30.03,North,0,0.0,0.0,56,0.00,,---,0.00,VWS V14.01,2013-07-07 16:08:00,
2013-07-07 18:09:00,59.5,43.8,30.03,North,0,0.0,0.0,56,0.00,,---,0.00,VWS V14.01,2013-07-07 16:09:00,
2013-07-07 18:10:00,59.5,44.3,30.03,North,0,0.0,0.0,57,0.00,,---,0.00,VWS V14.01,2013-07-07 16:10:00,
2013-07-07 18:13:00,59.5,45.2,30.03,North,0,0.0,0.0,59,0.00,,---,0.00,VWS V14.01,2013-07-07 16:13:00,
2013-07-07 18:14:00,59.5,45.7,30.03,North,0,0.0,0.0,60,0.00,,---,0.00,VWS V14.01,2013-07-07 16:14:00,
2013-07-07 18:16:00,59.5,45.7,30.03,North,0,0.0,0.0,60,0.00,,---,0.00,VWS V14.01,2013-07-07 16:16:00,
2013-07-07 18:18:00,59.5,46.1,30.03,North,0,0.0,0.0,61,0.00,,---,0.00,VWS V14.01,2013-07-07 16:18:00,
2013-07-07 18:20:00,59.5,46.1,30.03,North,0,0.0,0.0,61,0.00,,---,0.00,VWS V14.01,2013-07-07 16:20:00,
2013-07-07 18:21:00,59.4,45.9,30.06,North,0,0.0,0.0,61,0.00,,---,0.00,VWS V14.01,2013-07-07 16:21:00,
2013-07-07 18:23:00,59.4,45.9,30.06,North,0,0.0,0.0,61,0.00,,---,0.00,VWS V14.01,2013-07-07 16:23:00,
2013-07-07 18:27:00,59.5,47.0,30.06,North,0,0.0,0.0,63,0.00,,---,0.00,VWS V14.01,2013-07-07 16:27:00,
2013-07-07 18:28:00,59.5,47.4,30.06,North,0,0.0,0.0,64,0.00,,---,0.00,VWS V14.01,2013-07-07 16:28:00,
2013-07-07 18:29:00,59.5,47.4,30.06,North,0,0.0,0.0,64,0.00,,---,0.00,VWS V14.01,2013-07-07 16:29:00,
2013-07-07 18:30:00,59.5,47.4,30.06,North,0,0.0,0.0,64,0.00,,---,0.00,VWS V14.01,2013-07-07 16:30:00,
2013-07-07 18:33:00,59.5,47.8,30.06,North,0,0.0,0.0,65,0.00,,---,0.00,VWS V14.01,2013-07-07 16:33:00,
2013-07-07 18:36:00,59.5,48.2,30.06,North,0,0.0,0.0,66,0.00,,---,0.00,VWS V14.01,2013-07-07 16:36:00,
2013-07-07 18:37:00,59.5,48.2,30.06,North,0,0.0,0.0,66,0.00,,---,0.00,VWS V14.01,2013-07-07 16:37:00,
2013-07-07 18:40:00,59.5,48.6,30.06,North,0,0.0,0.0,67,0.00,,---,0.00,VWS V14.01,2013-07-07 16:40:00,
2013-07-07 18:41:00,59.5,48.6,30.06,North,0,0.0,0.0,67,0.00,,---,0.00,VWS V14.01,2013-07-07 16:41:00,
2013-07-07 18:43:00,59.5,49.0,30.06,North,0,0.0,0.0,68,0.00,,---,0.00,VWS V14.01,2013-07-07 16:43:00,
2013-07-07 18:46:00,59.5,49.0,30.06,North,0,0.0,0.0,68,0.00,,---,0.00,VWS V14.01,2013-07-07 16:46:00,
2013-07-07 18:48:00,59.5,49.0,30.06,North,0,0.0,0.0,68,0.00,,---,0.00,VWS V14.01,2013-07-07 16:48:00,
2013-07-07 18:51:00,59.4,48.8,30.06,North,0,0.0,0.0,68,0.00,,---,0.00,VWS V14.01,2013-07-07 16:51:00,
2013-07-07 18:53:00,59.4,49.2,30.06,North,0,0.0,0.0,69,0.00,,---,0.00,VWS V14.01,2013-07-07 16:53:00,
2013-07-07 18:54:00,59.4,49.2,30.06,North,0,0.0,0.0,69,0.00,,---,0.00,VWS V14.01,2013-07-07 16:54:00,
2013-07-07 18:56:00,59.4,49.2,30.06,North,0,0.0,0.0,69,0.00,,---,0.00,VWS V14.01,2013-07-07 16:56:00,
2013-07-07 18:57:00,59.4,49.2,30.06,North,0,0.0,0.0,69,0.00,,---,0.00,VWS V14.01,2013-07-07 16:57:00,
2013-07-07 18:58:00,59.4,49.2,30.06,North,0,0.0,0.0,69,0.00,,---,0.00,VWS V14.01,2013-07-07 16:58:00,
2013-07-07 18:59:00,59.4,49.2,30.06,North,0,0.0,0.0,69,0.00,,---,0.00,VWS V14.01,2013-07-07 16:59:00,
2013-07-07 19:01:00,59.4,49.2,30.06,North,0,0.0,0.0,69,0.00,,---,0.00,VWS V14.01,2013-07-07 17:01:00,
2013-07-07 19:03:00,59.4,49.2,30.06,North,0,0.0,0.0,69,0.00,,---,0.00,VWS V14.01,2013-07-07 17:03:00,
2013-07-07 19:04:00,59.4,49.2,30.06,North,0,0.0,0.0,69,0.00,,---,0.00,VWS V14.01,2013-07-07 17:04:00,
2013-07-07 19:06:00,59.4,49.2,30.06,North,0,0.0,0.0,69,0.00,,---,0.00,VWS V14.01,2013-07-07 17:06:00,
2013-07-07 19:08:00,59.4,49.6,30.06,North,0,0.0,0.0,70,0.00,,---,0.00,VWS V14.01,2013-07-07 17:08:00,
2013-07-07 19:09:00,59.4,50.0,30.06,North,0,0.0,0.0,71,0.00,,---,0.00,VWS V14.01,2013-07-07 17:09:00,
2013-07-07 19:12:00,59.4,50.3,30.06,North,0,0.0,0.0,72,0.00,,---,0.00,VWS V14.01,2013-07-07 17:12:00,
2013-07-07 19:15:00,59.4,50.3,30.06,North,0,0.0,0.0,72,0.00,,---,0.00,VWS V14.01,2013-07-07 17:15:00,
2013-07-07 19:18:00,59.4,50.3,30.06,North,0,0.0,0.0,72,0.00,,---,0.00,VWS V14.01,2013-07-07 17:18:00,
2013-07-07 19:20:00,59.4,50.7,30.06,North,0,0.0,0.0,73,0.00,,---,0.00,VWS V14.01,2013-07-07 17:20:00,
2013-07-07 19:21:00,59.4,50.7,30.06,North,0,0.0,0.0,73,0.00,,---,0.00,VWS V14.01,2013-07-07 17:21:00,
2013-07-07 19:22:00,59.4,50.7,30.06,North,0,0.0,0.0,73,0.00,,---,0.00,VWS V14.01,2013-07-07 17:22:00,
2013-07-07 19:26:00,59.4,50.3,30.06,North,0,0.0,0.0,72,0.00,,---,0.00,VWS V14.01,2013-07-07 17:26:00,
2013-07-07 19:28:00,59.4,50.3,30.06,North,0,0.0,0.0,72,0.00,,---,0.00,VWS V14.01,2013-07-07 17:28:00,
2013-07-07 19:30:00,59.2,50.2,30.06,North,0,0.0,0.0,72,0.00,,---,0.00,VWS V14.01,2013-07-07 17:30:00,
2013-07-07 19:32:00,59.2,49.8,30.06,North,0,0.0,0.0,71,0.00,,---,0.00,VWS V14.01,2013-07-07 17:32:00,
2013-07-07 19:33:00,59.2,49.8,30.06,North,0,0.0,0.0,71,0.00,,---,0.00,VWS V14.01,2013-07-07 17:33:00,
2013-07-07 19:35:00,59.2,49.8,30.06,North,0,0.0,0.0,71,0.00,,---,0.00,VWS V14.01,2013-07-07 17:35:00,
2013-07-07 19:38:00,59.2,49.4,30.06,North,0,0.0,0.0,70,0.00,,---,0.00,VWS V14.01,2013-07-07 17:38:00,
2013-07-07 19:42:00,59.2,49.4,30.06,North,0,0.0,0.0,70,0.00,,---,0.00,VWS V14.01,2013-07-07 17:42:00,
2013-07-07 19:43:00,59.2,49.4,30.06,North,0,0.0,0.0,70,0.00,,---,0.00,VWS V14.01,2013-07-07 17:43:00,
2013-07-07 19:44:00,59.2,49.0,30.06,North,0,0.0,0.0,69,0.00,,---,0.00,VWS V14.01,2013-07-07 17:44:00,
2013-07-07 19:48:00,59.2,49.0,30.06,North,0,0.0,0.0,69,0.00,,---,0.00,VWS V14.01,2013-07-07 17:48:00,
2013-07-07 19:50:00,59.2,48.6,30.06,North,0,0.0,0.0,68,0.00,,---,0.00,VWS V14.01,2013-07-07 17:50:00,
2013-07-07 19:52:00,59.2,48.6,30.06,North,0,0.0,0.0,68,0.00,,---,0.00,VWS V14.01,2013-07-07 17:52:00,
2013-07-07 19:56:00,59.2,48.2,30.06,North,0,0.0,0.0,67,0.00,,---,0.00,VWS V14.01,2013-07-07 17:56:00,
2013-07-07 19:57:00,59.2,48.2,30.06,North,0,0.0,0.0,67,0.00,,---,0.00,VWS V14.01,2013-07-07 17:57:00,
2013-07-07 20:00:00,59.0,48.1,30.06,North,0,0.0,0.0,67,0.00,,---,0.00,VWS V14.01,2013-07-07 18:00:00,
2013-07-07 20:02:00,59.0,48.1,30.06,North,0,0.0,0.0,67,0.00,,---,0.00,VWS V14.01,2013-07-07 18:02:00,
2013-07-07 20:05:00,59.0,48.1,30.06,North,0,0.0,0.0,67,0.00,,---,0.00,VWS V14.01,2013-07-07 18:05:00,
2013-07-07 20:06:00,59.0,48.1,30.06,North,0,0.0,0.0,67,0.00,,---,0.00,VWS V14.01,2013-07-07 18:06:00,
2013-07-07 20:07:00,59.0,48.1,30.06,North,0,0.0,0.0,67,0.00,,---,0.00,VWS V14.01,2013-07-07 18:07:00,
2013-07-07 20:08:00,59.0,48.1,30.06,North,0,0.0,0.0,67,0.00,,---,0.00,VWS V14.01,2013-07-07 18:08:00,
2013-07-07 20:09:00,59.0,48.1,30.06,North,0,0.0,0.0,67,0.00,,---,0.00,VWS V14.01,2013-07-07 18:09:00,
2013-07-07 20:12:00,59.0,48.1,30.06,North,0,0.0,0.0,67,0.00,,---,0.00,VWS V14.01,2013-07-07 18:12:00,
2013-07-07 20:13:00,59.0,48.1,30.06,North,0,0.0,0.0,67,0.00,,---,0.00,VWS V14.01,2013-07-07 18:13:00,
2013-07-07 20:14:00,59.0,47.7,30.06,North,0,0.0,0.0,66,0.00,,---,0.00,VWS V14.01,2013-07-07 18:14:00,
2013-07-07 20:15:00,58.8,47.9,30.06,North,0,0.0,0.0,67,0.00,,---,0.00,VWS V14.01,2013-07-07 18:15:00,
2013-07-07 20:17:00,58.8,47.9,30.06,North,0,0.0,0.0,67,0.00,,---,0.00,VWS V14.01,2013-07-07 18:17:00,
2013-07-07 20:18:00,58.8,47.9,30.06,North,0,0.0,0.0,67,0.00,,---,0.00,VWS V14.01,2013-07-07 18:18:00,
2013-07-07 20:20:00,58.8,47.9,30.06,North,0,0.0,0.0,67,0.00,,---,0.00,VWS V14.01,2013-07-07 18:20:00,
2013-07-07 20:21:00,58.8,47.9,30.06,North,0,0.0,0.0,67,0.00,,---,0.00,VWS V14.01,2013-07-07 18:21:00,
2013-07-07 20:22:00,58.8,47.9,30.06,North,0,0.0,0.0,67,0.00,,---,0.00,VWS V14.01,2013-07-07 18:22:00,
2013-07-07 20:24:00,58.8,48.3,30.06,North,0,0.0,0.0,68,0.00,,---,0.00,VWS V14.01,2013-07-07 18:24:00,
2013-07-07 20:25:00,58.8,48.3,30.06,North,0,0.0,0.0,68,0.00,,---,0.00,VWS V14.01,2013-07-07 18:25:00,
2013-07-07 20:28:00,58.6,48.1,30.06,North,0,0.0,0.0,68,0.00,,---,0.00,VWS V14.01,2013-07-07 18:28:00,
2013-07-07 20:30:00,58.6,48.5,30.06,North,0,0.0,0.0,69,0.00,,---,0.00,VWS V14.01,2013-07-07 18:30:00,
2013-07-07 20:32:00,58.6,48.5,30.06,North,0,0.0,0.0,69,0.00,,---,0.00,VWS V14.01,2013-07-07 18:32:00,
2013-07-07 20:35:00,58.6,48.5,30.06,North,0,0.0,0.0,69,0.00,,---,0.00,VWS V14.01,2013-07-07 18:35:00,
2013-07-07 20:36:00,58.6,48.9,30.06,North,0,0.0,0.0,70,0.00,,---,0.00,VWS V14.01,2013-07-07 18:36:00,
2013-07-07 20:37:00,58.6,48.9,30.06,North,0,0.0,0.0,70,0.00,,---,0.00,VWS V14.01,2013-07-07 18:37:00,
2013-07-07 20:40:00,58.6,49.3,30.06,North,0,0.0,0.0,71,0.00,,---,0.00,VWS V14.01,2013-07-07 18:40:00,
2013-07-07 20:41:00,58.6,49.3,30.06,North,0,0.0,0.0,71,0.00,,---,0.00,VWS V14.01,2013-07-07 18:41:00,
2013-07-07 20:42:00,58.6,49.3,30.06,North,0,0.0,0.0,71,0.00,,---,0.00,VWS V14.01,2013-07-07 18:42:00,
2013-07-07 20:43:00,58.8,49.8,30.06,North,0,0.0,0.0,72,0.00,,---,0.00,VWS V14.01,2013-07-07 18:43:00,
2013-07-07 20:47:00,58.8,50.2,30.06,North,0,0.0,0.0,73,0.00,,---,0.00,VWS V14.01,2013-07-07 18:47:00,
2013-07-07 20:49:00,58.8,50.6,30.06,North,0,0.0,0.0,74,0.00,,---,0.00,VWS V14.01,2013-07-07 18:49:00,
2013-07-07 20:50:00,58.8,50.6,30.06,North,0,0.0,0.0,74,0.00,,---,0.00,VWS V14.01,2013-07-07 18:50:00,
2013-07-07 20:52:00,58.8,50.6,30.06,North,0,0.0,0.0,74,0.00,,---,0.00,VWS V14.01,2013-07-07 18:52:00,
2013-07-07 20:56:00,58.8,50.9,30.06,North,0,0.0,0.0,75,0.00,,---,0.00,VWS V14.01,2013-07-07 18:56:00,
2013-07-07 20:57:00,58.8,50.9,30.06,North,0,0.0,0.0,75,0.00,,---,0.00,VWS V14.01,2013-07-07 18:57:00,
2013-07-07 20:58:00,58.8,50.9,30.06,North,0,0.0,0.0,75,0.00,,---,0.00,VWS V14.01,2013-07-07 18:58:00,
2013-07-07 21:02:00,58.8,51.3,30.06,North,0,0.0,0.0,76,0.00,,---,0.00,VWS V14.01,2013-07-07 19:02:00,
2013-07-07 21:03:00,58.8,51.3,30.06,North,0,0.0,0.0,76,0.00,,---,0.00,VWS V14.01,2013-07-07 19:03:00,
2013-07-07 21:05:00,58.8,51.3,30.06,North,0,0.0,0.0,76,0.00,,---,0.00,VWS V14.01,2013-07-07 19:05:00,
2013-07-07 21:08:00,58.5,50.9,30.06,North,0,0.0,0.0,76,0.00,,---,0.00,VWS V14.01,2013-07-07 19:08:00,
2013-07-07 21:10:00,58.5,50.9,30.06,North,0,0.0,0.0,76,0.00,,---,0.00,VWS V14.01,2013-07-07 19:10:00,
2013-07-07 21:11:00,58.5,50.9,30.06,North,0,0.0,0.0,76,0.00,,---,0.00,VWS V14.01,2013-07-07 19:11:00,
2013-07-07 21:13:00,58.3,50.8,30.06,North,0,0.0,0.0,76,0.00,,---,0.00,VWS V14.01,2013-07-07 19:13:00,
2013-07-07 21:15:00,58.3,50.8,30.06,North,0,0.0,0.0,76,0.00,,---,0.00,VWS V14.01,2013-07-07 19:15:00,
2013-07-07 21:18:00,58.1,50.9,30.06,North,0,0.0,0.0,77,0.00,,---,0.00,VWS V14.01,2013-07-07 19:18:00,
2013-07-07 21:19:00,58.1,50.9,30.06,North,0,0.0,0.0,77,0.00,,---,0.00,VWS V14.01,2013-07-07 19:19:00,
2013-07-07 21:21:00,57.9,51.1,30.06,North,0,0.0,0.0,78,0.00,,---,0.00,VWS V14.01,2013-07-07 19:21:00,
2013-07-07 21:24:00,57.9,51.1,30.06,North,0,0.0,0.0,78,0.00,,---,0.00,VWS V14.01,2013-07-07 19:24:00,
2013-07-07 21:25:00,57.9,51.5,30.06,North,0,0.0,0.0,79,0.00,,---,0.00,VWS V14.01,2013-07-07 19:25:00,
2013-07-07 21:27:00,57.9,51.5,30.06,North,0,0.0,0.0,79,0.00,,---,0.00,VWS V14.01,2013-07-07 19:27:00,
2013-07-07 21:30:00,57.9,51.8,30.06,North,0,0.0,0.0,80,0.00,,---,0.00,VWS V14.01,2013-07-07 19:30:00,
2013-07-07 21:32:00,57.9,51.8,30.06,North,0,0.0,0.0,80,0.00,,---,0.00,VWS V14.01,2013-07-07 19:32:00,
2013-07-07 21:35:00,57.9,51.8,30.03,North,0,0.0,0.0,80,0.00,,---,0.00,VWS V14.01,2013-07-07 19:35:00,
2013-07-07 21:36:00,57.9,51.8,30.03,North,0,0.0,0.0,80,0.00,,---,0.00,VWS V14.01,2013-07-07 19:36:00,
2013-07-07 21:37:00,57.9,52.1,30.03,North,0,0.0,0.0,81,0.00,,---,0.00,VWS V14.01,2013-07-07 19:37:00,
2013-07-07 21:40:00,57.9,51.8,30.03,North,0,0.0,0.0,80,0.00,,---,0.00,VWS V14.01,2013-07-07 19:40:00,
2013-07-07 21:42:00,57.9,51.8,30.03,North,0,0.0,0.0,80,0.00,,---,0.00,VWS V14.01,2013-07-07 19:42:00,
2013-07-07 21:44:00,57.9,51.8,30.03,North,0,0.0,0.0,80,0.00,,---,0.00,VWS V14.01,2013-07-07 19:44:00,
2013-07-07 21:45:00,57.7,51.6,30.03,North,0,0.0,0.0,80,0.00,,---,0.00,VWS V14.01,2013-07-07 19:45:00,
2013-07-07 21:48:00,57.7,51.6,30.03,North,0,0.0,0.0,80,0.00,,---,0.00,VWS V14.01,2013-07-07 19:48:00,
2013-07-07 21:51:00,57.7,51.6,30.03,North,0,0.0,0.0,80,0.00,,---,0.00,VWS V14.01,2013-07-07 19:51:00,
2013-07-07 21:52:00,57.7,51.6,30.06,North,0,0.0,0.0,80,0.00,,---,0.00,VWS V14.01,2013-07-07 19:52:00,
2013-07-07 21:53:00,57.7,51.6,30.06,North,0,0.0,0.0,80,0.00,,---,0.00,VWS V14.01,2013-07-07 19:53:00,
2013-07-07 21:54:00,57.7,51.6,30.06,North,0,0.0,0.0,80,0.00,,---,0.00,VWS V14.01,2013-07-07 19:54:00,
2013-07-07 21:57:00,57.9,51.8,30.06,North,0,0.0,0.0,80,0.00,,---,0.00,VWS V14.01,2013-07-07 19:57:00,
2013-07-07 21:58:00,57.9,51.8,30.06,North,0,0.0,0.0,80,0.00,,---,0.00,VWS V14.01,2013-07-07 19:58:00,
2013-07-07 21:59:00,57.9,51.8,30.06,North,0,0.0,0.0,80,0.00,,---,0.00,VWS V14.01,2013-07-07 19:59:00,
2013-07-07 22:01:00,57.7,51.3,30.06,North,0,0.0,0.0,79,0.00,,---,0.00,VWS V14.01,2013-07-07 20:01:00,
2013-07-07 22:04:00,57.9,51.5,30.06,North,0,0.0,0.0,79,0.00,,---,0.00,VWS V14.01,2013-07-07 20:04:00,
2013-07-07 22:06:00,57.9,51.5,30.03,North,0,0.0,0.0,79,0.00,,---,0.00,VWS V14.01,2013-07-07 20:06:00,
2013-07-07 22:07:00,57.9,51.5,30.03,North,0,0.0,0.0,79,0.00,,---,0.00,VWS V14.01,2013-07-07 20:07:00,
2013-07-07 22:08:00,57.9,51.5,30.03,North,0,0.0,0.0,79,0.00,,---,0.00,VWS V14.01,2013-07-07 20:08:00,
2013-07-07 22:10:00,57.9,51.5,30.03,North,0,0.0,0.0,79,0.00,,---,0.00,VWS V14.01,2013-07-07 20:10:00,
2013-07-07 22:11:00,57.9,51.5,30.03,North,0,0.0,0.0,79,0.00,,---,0.00,VWS V14.01,2013-07-07 20:11:00,
2013-07-07 22:12:00,57.9,51.5,30.03,North,0,0.0,0.0,79,0.00,,---,0.00,VWS V14.01,2013-07-07 20:12:00,
2013-07-07 22:15:00,57.9,51.1,30.03,North,0,0.0,0.0,78,0.00,,---,0.00,VWS V14.01,2013-07-07 20:15:00,
2013-07-07 22:16:00,57.9,51.1,30.03,North,0,0.0,0.0,78,0.00,,---,0.00,VWS V14.01,2013-07-07 20:16:00,
2013-07-07 22:18:00,57.9,51.1,30.03,North,0,0.0,0.0,78,0.00,,---,0.00,VWS V14.01,2013-07-07 20:18:00,
2013-07-07 22:21:00,57.9,50.8,30.03,North,0,0.0,0.0,77,0.00,,---,0.00,VWS V14.01,2013-07-07 20:21:00,
2013-07-07 22:22:00,57.9,50.8,30.03,North,0,0.0,0.0,77,0.00,,---,0.00,VWS V14.01,2013-07-07 20:22:00,
2013-07-07 22:24:00,57.7,50.6,30.03,North,0,0.0,0.0,77,0.00,,---,0.00,VWS V14.01,2013-07-07 20:24:00,
2013-07-07 22:26:00,57.7,50.2,30.03,North,0,0.0,0.0,76,0.00,,---,0.00,VWS V14.01,2013-07-07 20:26:00,
2013-07-07 22:27:00,57.7,50.2,30.03,North,0,0.0,0.0,76,0.00,,---,0.00,VWS V14.01,2013-07-07 20:27:00,
2013-07-07 22:28:00,57.7,50.2,30.03,North,0,0.0,0.0,76,0.00,,---,0.00,VWS V14.01,2013-07-07 20:28:00,
2013-07-07 22:30:00,57.7,50.2,30.03,North,0,0.0,0.0,76,0.00,,---,0.00,VWS V14.01,2013-07-07 20:30:00,
2013-07-07 22:31:00,57.6,49.7,30.03,North,0,0.0,0.0,75,0.00,,---,0.00,VWS V14.01,2013-07-07 20:31:00,
2013-07-07 22:33:00,57.6,49.3,30.03,North,0,0.0,0.0,74,0.00,,---,0.00,VWS V14.01,2013-07-07 20:33:00,
2013-07-07 22:34:00,57.4,49.2,30.03,North,0,0.0,0.0,74,0.00,,---,0.00,VWS V14.01,2013-07-07 20:34:00,
2013-07-07 22:35:00,57.4,49.2,30.03,North,0,0.0,0.0,74,0.00,,---,0.00,VWS V14.01,2013-07-07 20:35:00,
2013-07-07 22:37:00,57.4,49.2,30.03,North,0,0.0,0.0,74,0.00,,---,0.00,VWS V14.01,2013-07-07 20:37:00,
2013-07-07 22:38:00,57.2,48.6,30.03,North,0,0.0,0.0,73,0.00,,---,0.00,VWS V14.01,2013-07-07 20:38:00,
2013-07-07 22:41:00,57.0,48.5,30.03,North,0,0.0,0.0,73,0.00,,---,0.00,VWS V14.01,2013-07-07 20:41:00,
2013-07-07 22:43:00,57.0,48.5,30.03,North,0,0.0,0.0,73,0.00,,---,0.00,VWS V14.01,2013-07-07 20:43:00,
2013-07-07 22:44:00,57.0,48.5,30.03,North,0,0.0,0.0,73,0.00,,---,0.00,VWS V14.01,2013-07-07 20:44:00,
2013-07-07 22:46:00,57.0,48.1,30.03,North,0,0.0,0.0,72,0.00,,---,0.00,VWS V14.01,2013-07-07 20:46:00,
2013-07-07 22:47:00,57.0,48.1,30.03,North,0,0.0,0.0,72,0.00,,---,0.00,VWS V14.01,2013-07-07 20:47:00,
2013-07-07 22:50:00,57.0,47.7,30.03,North,0,0.0,0.0,71,0.00,,---,0.00,VWS V14.01,2013-07-07 20:50:00,
2013-07-07 22:52:00,57.0,47.7,30.03,North,0,0.0,0.0,71,0.00,,---,0.00,VWS V14.01,2013-07-07 20:52:00,
2013-07-07 22:53:00,57.0,47.7,30.03,North,0,0.0,0.0,71,0.00,,---,0.00,VWS V14.01,2013-07-07 20:53:00,
2013-07-07 22:55:00,56.8,47.2,30.03,North,0,0.0,0.0,70,0.00,,---,0.00,VWS V14.01,2013-07-07 20:55:00,
2013-07-07 22:59:00,56.8,47.2,30.03,North,0,0.0,0.0,70,0.00,,---,0.00,VWS V14.01,2013-07-07 20:59:00,
2013-07-07 23:00:00,56.8,47.2,30.03,North,0,0.0,0.0,70,0.00,,---,0.00,VWS V14.01,2013-07-07 21:00:00,
2013-07-07 23:01:00,56.8,46.8,30.03,North,0,0.0,0.0,69,0.00,,---,0.00,VWS V14.01,2013-07-07 21:01:00,
2013-07-07 23:04:00,56.8,46.8,30.03,North,0,0.0,0.0,69,0.00,,---,0.00,VWS V14.01,2013-07-07 21:04:00,
2013-07-07 23:06:00,56.8,46.8,30.03,North,0,0.0,0.0,69,0.00,,---,0.00,VWS V14.01,2013-07-07 21:06:00,
2013-07-07 23:07:00,56.8,46.8,30.03,North,0,0.0,0.0,69,0.00,,---,0.00,VWS V14.01,2013-07-07 21:07:00,
2013-07-07 23:09:00,56.8,46.8,30.03,North,0,0.0,0.0,69,0.00,,---,0.00,VWS V14.01,2013-07-07 21:09:00,
2013-07-07 23:12:00,56.8,46.4,30.03,North,0,0.0,0.0,68,0.00,,---,0.00,VWS V14.01,2013-07-07 21:12:00,
2013-07-07 23:14:00,56.8,46.0,30.03,North,0,0.0,0.0,67,0.00,,---,0.00,VWS V14.01,2013-07-07 21:14:00,
2013-07-07 23:15:00,56.8,46.0,30.03,North,0,0.0,0.0,67,0.00,,---,0.00,VWS V14.01,2013-07-07 21:15:00,
2013-07-07 23:17:00,56.7,45.4,30.03,North,0,0.0,0.0,66,0.00,,---,0.00,VWS V14.01,2013-07-07 21:17:00,
2013-07-07 23:18:00,56.7,45.4,30.03,North,0,0.0,0.0,66,0.00,,---,0.00,VWS V14.01,2013-07-07 21:18:00,
2013-07-07 23:21:00,56.7,45.4,30.03,North,0,0.0,0.0,66,0.00,,---,0.00,VWS V14.01,2013-07-07 21:21:00,
2013-07-07 23:23:00,56.5,44.9,30.03,North,0,0.0,0.0,65,0.00,,---,0.00,VWS V14.01,2013-07-07 21:23:00,
2013-07-07 23:24:00,56.5,44.9,30.03,North,0,0.0,0.0,65,0.00,,---,0.00,VWS V14.01,2013-07-07 21:24:00,
2013-07-07 23:25:00,56.5,44.9,30.03,North,0,0.0,0.0,65,0.00,,---,0.00,VWS V14.01,2013-07-07 21:25:00,
2013-07-07 23:26:00,56.5,44.9,30.03,North,0,0.0,0.0,65,0.00,,---,0.00,VWS V14.01,2013-07-07 21:26:00,
2013-07-07 23:29:00,56.7,45.0,30.03,North,0,0.0,0.0,65,0.00,,---,0.00,VWS V14.01,2013-07-07 21:29:00,
2013-07-07 23:31:00,56.7,45.0,30.03,North,0,0.0,0.0,65,0.00,,---,0.00,VWS V14.01,2013-07-07 21:31:00,
2013-07-07 23:32:00,56.7,45.0,30.03,North,0,0.0,0.0,65,0.00,,---,0.00,VWS V14.01,2013-07-07 21:32:00,
2013-07-07 23:33:00,56.7,45.0,30.03,North,0,0.0,0.0,65,0.00,,---,0.00,VWS V14.01,2013-07-07 21:33:00,
2013-07-07 23:35:00,56.5,44.9,30.03,North,0,0.0,0.0,65,0.00,,---,0.00,VWS V14.01,2013-07-07 21:35:00,
2013-07-07 23:37:00,56.5,44.5,30.03,North,0,0.0,0.0,64,0.00,,---,0.00,VWS V14.01,2013-07-07 21:37:00,
2013-07-07 23:38:00,56.7,44.6,30.03,North,0,0.0,0.0,64,0.00,,---,0.00,VWS V14.01,2013-07-07 21:38:00,
2013-07-07 23:43:00,56.8,44.8,30.03,North,0,0.0,0.0,64,0.00,,---,0.00,VWS V14.01,2013-07-07 21:43:00,
2013-07-07 23:44:00,56.8,44.8,30.03,North,0,0.0,0.0,64,0.00,,---,0.00,VWS V14.01,2013-07-07 21:44:00,
2013-07-07 23:45:00,56.8,44.8,30.03,North,0,0.0,0.0,64,0.00,,---,0.00,VWS V14.01,2013-07-07 21:45:00,
2013-07-07 23:48:00,56.7,44.2,30.03,North,0,0.0,0.0,63,0.00,,---,0.00,VWS V14.01,2013-07-07 21:48:00,
2013-07-07 23:49:00,56.7,43.8,30.03,North,0,0.0,0.0,62,0.00,,---,0.00,VWS V14.01,2013-07-07 21:49:00,
2013-07-07 23:50:00,56.7,43.8,30.00,North,0,0.0,0.0,62,0.00,,---,0.00,VWS V14.01,2013-07-07 21:50:00,
2013-07-07 23:53:00,56.7,43.8,30.00,North,0,0.0,0.0,62,0.00,,---,0.00,VWS V14.01,2013-07-07 21:53:00,
2013-07-07 23:54:00,56.7,43.8,30.00,North,0,0.0,0.0,62,0.00,,---,0.00,VWS V14.01,2013-07-07 21:54:00,
2013-07-07 23:59:00,56.7,43.4,30.00,North,0,0.0,0.0,61,0.00,,---,0.00,VWS V14.01,2013-07-07 21:59:00,